Observation data for Goodnight on 02/14/2020      Previous  Date  Next       Current Mesonet Observations  Soil Data  Daily Summary Page  Observations in Plain Language
KGO1 140600Z 12006KT M07/M10 A3031 RMK A01 T10681101  RH  077%=      5-min Rain = 0
KGO1 140601Z 12006KT M07/M10 A3031 RMK A01 T10691102  RH  077%=      5-min Rain = 0
KGO1 140602Z 12006KT M07/M10 A3031 RMK A01 T10691102  RH  077%=      5-min Rain = 0
KGO1 140603Z 12006KT M07/M10 A3031 RMK A01 T10701102  RH  077%=      5-min Rain = 0
KGO1 140604Z 12006KT M07/M10 A3031 RMK A01 T10701102  RH  078%=      5-min Rain = 0
KGO1 140605Z 12007KT M07/M10 A3031 RMK A01 T10701102  RH  078%=      5-min Rain = 0
KGO1 140606Z 12007KT M07/M10 A3031 RMK A01 T10701102  RH  078%=      5-min Rain = 0
KGO1 140607Z 12007KT M07/M10 A3031 RMK A01 T10691102  RH  078%=      5-min Rain = 0
KGO1 140608Z 12008KT M07/M10 A3031 RMK A01 T10691102  RH  077%=      5-min Rain = 0
KGO1 140609Z 12007KT M07/M10 A3031 RMK A01 T10681102  RH  077%=      5-min Rain = 0
KGO1 140610Z 12007KT M07/M10 A3031 RMK A01 T10681103  RH  076%=      5-min Rain = 0
KGO1 140611Z 12008KT M07/M10 A3031 RMK A01 T10681103  RH  077%=      5-min Rain = 0
KGO1 140612Z 12008KT M07/M10 A3031 RMK A01 T10681102  RH  077%=      5-min Rain = 0
KGO1 140613Z 12007KT M07/M10 A3031 RMK A01 T10681103  RH  077%=      5-min Rain = 0
KGO1 140614Z 12007KT M07/M10 A3031 RMK A01 T10681103  RH  077%=      5-min Rain = 0
KGO1 140615Z 12008KT M07/M10 A3031 RMK A01 T10691103  RH  077%=      5-min Rain = 0
KGO1 140616Z 12008KT M07/M10 A3031 RMK A01 T10691103  RH  077%=      5-min Rain = 0
KGO1 140617Z 12008KT M07/M10 A3031 RMK A01 T10691104  RH  076%=      5-min Rain = 0
KGO1 140618Z 12008KT M07/M10 A3031 RMK A01 T10681104  RH  076%=      5-min Rain = 0
KGO1 140619Z 12008KT M07/M10 A3031 RMK A01 T10681104  RH  076%=      5-min Rain = 0
KGO1 140620Z 12008KT M07/M10 A3031 RMK A01 T10681103  RH  076%=      5-min Rain = 0
KGO1 140621Z 12007KT M07/M10 A3031 RMK A01 T10691103  RH  076%=      5-min Rain = 0
KGO1 140622Z 12007KT M07/M10 A3031 RMK A01 T10681103  RH  077%=      5-min Rain = 0
KGO1 140623Z 13007KT M07/M10 A3031 RMK A01 T10691102  RH  077%=      5-min Rain = 0
KGO1 140624Z 12007KT M07/M10 A3031 RMK A01 T10691102  RH  077%=      5-min Rain = 0
KGO1 140625Z 12007KT M07/M10 A3031 RMK A01 T10691103  RH  077%=      5-min Rain = 0
KGO1 140626Z 12006KT M07/M10 A3032 RMK A01 T10691103  RH  077%=      5-min Rain = 0
KGO1 140627Z 13007KT M07/M10 A3032 RMK A01 T10691102  RH  077%=      5-min Rain = 0
KGO1 140628Z 13006KT M07/M10 A3032 RMK A01 T10701102  RH  078%=      5-min Rain = 0
KGO1 140629Z 13006KT M07/M10 A3032 RMK A01 T10691101  RH  078%=      5-min Rain = 0
KGO1 140630Z 13006KT M07/M10 A3032 RMK A01 T10701101  RH  078%=      5-min Rain = 0
KGO1 140631Z 13006KT M07/M10 A3032 RMK A01 T10701101  RH  078%=      5-min Rain = 0
KGO1 140632Z 13006KT M07/M10 A3032 RMK A01 T10701101  RH  078%=      5-min Rain = 0
KGO1 140633Z 13007KT M07/M10 A3032 RMK A01 T10701101  RH  078%=      5-min Rain = 0
KGO1 140634Z 13006KT M07/M10 A3032 RMK A01 T10701102  RH  078%=      5-min Rain = 0
KGO1 140635Z 13007KT M07/M10 A3032 RMK A01 T10701101  RH  078%=      5-min Rain = 0
KGO1 140636Z 13007KT M07/M10 A3032 RMK A01 T10701101  RH  078%=      5-min Rain = 0
KGO1 140637Z 13006KT M07/M10 A3032 RMK A01 T10701102  RH  078%=      5-min Rain = 0
KGO1 140638Z 13006KT M07/M10 A3032 RMK A01 T10701101  RH  078%=      5-min Rain = 0
KGO1 140639Z 13007KT M07/M10 A3032 RMK A01 T10701101  RH  078%=      5-min Rain = 0
KGO1 140640Z 13006KT M07/M10 A3032 RMK A01 T10701102  RH  078%=      5-min Rain = 0
KGO1 140641Z 13007KT M07/M10 A3032 RMK A01 T10701103  RH  078%=      5-min Rain = 0
KGO1 140642Z 13006KT M07/M10 A3032 RMK A01 T10701103  RH  077%=      5-min Rain = 0
KGO1 140643Z 12006KT M07/M10 A3032 RMK A01 T10701103  RH  077%=      5-min Rain = 0
KGO1 140644Z 13007KT M07/M10 A3032 RMK A01 T10701103  RH  077%=      5-min Rain = 0
KGO1 140645Z 13007KT M07/M10 A3032 RMK A01 T10701104  RH  077%=      5-min Rain = 0
KGO1 140646Z 12008KT M07/M10 A3032 RMK A01 T10701104  RH  077%=      5-min Rain = 0
KGO1 140647Z 12007KT M07/M11 A3032 RMK A01 T10701105  RH  076%=      5-min Rain = 0
KGO1 140648Z 12007KT M07/M11 A3032 RMK A01 T10691105  RH  076%=      5-min Rain = 0
KGO1 140649Z 12007KT M07/M11 A3032 RMK A01 T10691105  RH  076%=      5-min Rain = 0
KGO1 140650Z 12007KT M07/M11 A3032 RMK A01 T10691105  RH  076%=      5-min Rain = 0
KGO1 140651Z 12007KT M07/M10 A3032 RMK A01 T10691104  RH  076%=      5-min Rain = 0
KGO1 140652Z 12006KT M07/M10 A3032 RMK A01 T10701104  RH  077%=      5-min Rain = 0
KGO1 140653Z 12006KT M07/M10 A3033 RMK A01 T10701104  RH  077%=      5-min Rain = 0
KGO1 140654Z 12006KT M07/M10 A3033 RMK A01 T10711104  RH  077%=      5-min Rain = 0
KGO1 140655Z 12006KT M07/M10 A3033 RMK A01 T10711104  RH  077%=      5-min Rain = 0
KGO1 140656Z 12005KT M07/M10 A3033 RMK A01 T10711104  RH  077%=      5-min Rain = 0
KGO1 140657Z 12005KT M07/M10 A3033 RMK A01 T10721104  RH  078%=      5-min Rain = 0
KGO1 140658Z 12005KT M07/M10 A3033 RMK A01 T10721104  RH  078%=      5-min Rain = 0
KGO1 140659Z 12005KT M07/M10 A3033 RMK A01 T10721104  RH  078%=      5-min Rain = 0
KGO1 140700Z 12004KT M07/M10 A3033 RMK A01 T10721104  RH  078%=      5-min Rain = 0
KGO1 140701Z 12005KT M07/M10 A3033 RMK A01 T10721104  RH  078%=      5-min Rain = 0
KGO1 140702Z 12005KT M07/M11 A3033 RMK A01 T10731105  RH  078%=      5-min Rain = 0
KGO1 140703Z 12006KT M07/M11 A3033 RMK A01 T10731105  RH  078%=      5-min Rain = 0
KGO1 140704Z 12005KT M07/M11 A3033 RMK A01 T10721106  RH  077%=      5-min Rain = 0
KGO1 140705Z 12005KT M07/M11 A3033 RMK A01 T10721106  RH  077%=      5-min Rain = 0
KGO1 140706Z 12005KT M07/M11 A3033 RMK A01 T10721106  RH  077%=      5-min Rain = 0
KGO1 140707Z 12005KT M07/M11 A3033 RMK A01 T10721105  RH  077%=      5-min Rain = 0
KGO1 140708Z 12005KT M07/M11 A3033 RMK A01 T10721106  RH  077%=      5-min Rain = 0
KGO1 140709Z 12005KT M07/M11 A3033 RMK A01 T10721105  RH  077%=      5-min Rain = 0
KGO1 140710Z 12005KT M07/M11 A3033 RMK A01 T10731105  RH  078%=      5-min Rain = 0
KGO1 140711Z 12005KT M07/M11 A3033 RMK A01 T10731106  RH  078%=      5-min Rain = 0
KGO1 140712Z 12006KT M07/M11 A3033 RMK A01 T10731106  RH  078%=      5-min Rain = 0
KGO1 140713Z 12006KT M07/M11 A3033 RMK A01 T10731106  RH  077%=      5-min Rain = 0
KGO1 140714Z 12006KT M07/M11 A3033 RMK A01 T10731106  RH  077%=      5-min Rain = 0
KGO1 140715Z 12006KT M07/M11 A3033 RMK A01 T10731106  RH  077%=      5-min Rain = 0
KGO1 140716Z 12006KT M07/M11 A3033 RMK A01 T10731107  RH  077%=      5-min Rain = 0
KGO1 140717Z 12006KT M07/M11 A3033 RMK A01 T10731106  RH  077%=      5-min Rain = 0
KGO1 140718Z 12006KT M07/M11 A3033 RMK A01 T10731106  RH  077%=      5-min Rain = 0
KGO1 140719Z 12006KT M07/M11 A3033 RMK A01 T10741106  RH  078%=      5-min Rain = 0
KGO1 140720Z 12006KT M07/M11 A3033 RMK A01 T10741106  RH  078%=      5-min Rain = 0
KGO1 140721Z 12006KT M07/M11 A3033 RMK A01 T10741106  RH  078%=      5-min Rain = 0
KGO1 140722Z 12006KT M07/M11 A3033 RMK A01 T10741106  RH  078%=      5-min Rain = 0
KGO1 140723Z 12007KT M07/M11 A3033 RMK A01 T10741107  RH  078%=      5-min Rain = 0
KGO1 140724Z 12007KT M07/M11 A3033 RMK A01 T10741106  RH  078%=      5-min Rain = 0
KGO1 140725Z 12006KT M07/M11 A3033 RMK A01 T10741106  RH  078%=      5-min Rain = 0
KGO1 140726Z 12006KT M07/M11 A3033 RMK A01 T10741106  RH  078%=      5-min Rain = 0
KGO1 140727Z 12006KT M07/M11 A3033 RMK A01 T10741106  RH  078%=      5-min Rain = 0
KGO1 140728Z 12006KT M07/M11 A3033 RMK A01 T10741106  RH  078%=      5-min Rain = 0
KGO1 140729Z 12007KT M08/M11 A3033 RMK A01 T10751107  RH  078%=      5-min Rain = 0
KGO1 140730Z 12007KT M08/M11 A3033 RMK A01 T10751106  RH  078%=      5-min Rain = 0
KGO1 140731Z 12006KT M08/M11 A3033 RMK A01 T10751107  RH  078%=      5-min Rain = 0
KGO1 140732Z 12006KT M08/M11 A3033 RMK A01 T10751107  RH  078%=      5-min Rain = 0
KGO1 140733Z 12006KT M08/M11 A3033 RMK A01 T10751106  RH  078%=      5-min Rain = 0
KGO1 140734Z 12006KT M08/M11 A3033 RMK A01 T10751105  RH  079%=      5-min Rain = 0
KGO1 140735Z 12006KT M08/M11 A3033 RMK A01 T10751106  RH  079%=      5-min Rain = 0
KGO1 140736Z 12006KT M08/M11 A3033 RMK A01 T10751106  RH  079%=      5-min Rain = 0
KGO1 140737Z 12005KT M08/M11 A3033 RMK A01 T10751106  RH  079%=      5-min Rain = 0
KGO1 140738Z 12006KT M08/M11 A3033 RMK A01 T10751106  RH  079%=      5-min Rain = 0
KGO1 140739Z 12005KT M08/M11 A3033 RMK A01 T10751106  RH  079%=      5-min Rain = 0
KGO1 140740Z 12005KT M08/M11 A3033 RMK A01 T10761106  RH  079%=      5-min Rain = 0
KGO1 140741Z 13005KT M08/M11 A3033 RMK A01 T10761106  RH  079%=      5-min Rain = 0
KGO1 140742Z 13004KT M08/M11 A3033 RMK A01 T10761106  RH  079%=      5-min Rain = 0
KGO1 140743Z 13004KT M08/M11 A3033 RMK A01 T10761105  RH  080%=      5-min Rain = 0
KGO1 140744Z 13004KT M08/M11 A3033 RMK A01 T10761105  RH  080%=      5-min Rain = 0
KGO1 140745Z 13004KT M08/M11 A3033 RMK A01 T10761105  RH  080%=      5-min Rain = 0
KGO1 140746Z 13004KT M08/M11 A3033 RMK A01 T10771105  RH  080%=      5-min Rain = 0
KGO1 140747Z 13004KT M08/M11 A3033 RMK A01 T10771105  RH  080%=      5-min Rain = 0
KGO1 140748Z 13004KT M08/M11 A3033 RMK A01 T10771105  RH  080%=      5-min Rain = 0
KGO1 140749Z 13004KT M08/M11 A3033 RMK A01 T10771105  RH  080%=      5-min Rain = 0
KGO1 140750Z 14004KT M08/M11 A3033 RMK A01 T10781105  RH  081%=      5-min Rain = 0
KGO1 140751Z 14004KT M08/M11 A3033 RMK A01 T10781105  RH  081%=      5-min Rain = 0
KGO1 140752Z 14004KT M08/M11 A3033 RMK A01 T10781105  RH  081%=      5-min Rain = 0
KGO1 140753Z 14004KT M08/M11 A3033 RMK A01 T10781105  RH  081%=      5-min Rain = 0
KGO1 140754Z 14004KT M08/M10 A3033 RMK A01 T10781104  RH  082%=      5-min Rain = 0
KGO1 140755Z 15003KT M08/M10 A3033 RMK A01 T10781104  RH  081%=      5-min Rain = 0
KGO1 140756Z 14004KT M08/M10 A3033 RMK A01 T10771104  RH  081%=      5-min Rain = 0
KGO1 140757Z 14003KT M08/M10 A3033 RMK A01 T10771104  RH  081%=      5-min Rain = 0
KGO1 140758Z 14004KT M08/M10 A3033 RMK A01 T10771104  RH  081%=      5-min Rain = 0
KGO1 140759Z 14004KT M08/M10 A3033 RMK A01 T10771104  RH  081%=      5-min Rain = 0
KGO1 140800Z 13004KT M08/M10 A3033 RMK A01 T10761104  RH  081%=      5-min Rain = 0
KGO1 140801Z 13004KT M08/M10 A3033 RMK A01 T10771104  RH  081%=      5-min Rain = 0
KGO1 140802Z 13005KT M08/M11 A3033 RMK A01 T10761105  RH  080%=      5-min Rain = 0
KGO1 140803Z 13004KT M08/M11 A3033 RMK A01 T10761105  RH  080%=      5-min Rain = 0
KGO1 140804Z 13004KT M08/M11 A3033 RMK A01 T10761106  RH  080%=      5-min Rain = 0
KGO1 140805Z 13004KT M08/M11 A3033 RMK A01 T10761106  RH  079%=      5-min Rain = 0
KGO1 140806Z 13005KT M08/M11 A3033 RMK A01 T10761105  RH  079%=      5-min Rain = 0
KGO1 140807Z 13005KT M08/M11 A3033 RMK A01 T10761105  RH  079%=      5-min Rain = 0
KGO1 140808Z 13004KT M08/M11 A3033 RMK A01 T10761105  RH  079%=      5-min Rain = 0
KGO1 140809Z 13005KT M08/M11 A3033 RMK A01 T10761105  RH  080%=      5-min Rain = 0
KGO1 140810Z 13004KT M08/M11 A3033 RMK A01 T10761105  RH  080%=      5-min Rain = 0
KGO1 140811Z 13004KT M08/M10 A3033 RMK A01 T10761104  RH  080%=      5-min Rain = 0
KGO1 140812Z 13005KT M08/M11 A3033 RMK A01 T10761105  RH  080%=      5-min Rain = 0
KGO1 140813Z 13005KT M08/M11 A3033 RMK A01 T10761105  RH  080%=      5-min Rain = 0
KGO1 140814Z 13005KT M08/M11 A3033 RMK A01 T10771105  RH  080%=      5-min Rain = 0
KGO1 140815Z 13005KT M08/M11 A3033 RMK A01 T10771105  RH  080%=      5-min Rain = 0
KGO1 140816Z 13005KT M08/M11 A3033 RMK A01 T10781105  RH  081%=      5-min Rain = 0
KGO1 140817Z 13004KT M08/M11 A3033 RMK A01 T10781105  RH  081%=      5-min Rain = 0
KGO1 140818Z 13005KT M08/M11 A3033 RMK A01 T10781105  RH  082%=      5-min Rain = 0
KGO1 140819Z 14004KT M08/M10 A3033 RMK A01 T10781104  RH  082%=      5-min Rain = 0
KGO1 140820Z 14005KT M08/M10 A3033 RMK A01 T10781104  RH  082%=      5-min Rain = 0
KGO1 140821Z 14004KT M08/M10 A3033 RMK A01 T10781104  RH  082%=      5-min Rain = 0
KGO1 140822Z 14004KT M08/M10 A3033 RMK A01 T10781103  RH  082%=      5-min Rain = 0
KGO1 140823Z 14004KT M08/M10 A3033 RMK A01 T10781103  RH  082%=      5-min Rain = 0
KGO1 140824Z 14004KT M08/M10 A3033 RMK A01 T10781103  RH  082%=      5-min Rain = 0
KGO1 140825Z 14004KT M08/M10 A3033 RMK A01 T10781103  RH  083%=      5-min Rain = 0
KGO1 140826Z 14004KT M08/M10 A3033 RMK A01 T10781102  RH  083%=      5-min Rain = 0
KGO1 140827Z 14004KT M08/M10 A3033 RMK A01 T10781103  RH  083%=      5-min Rain = 0
KGO1 140828Z 14004KT M08/M10 A3033 RMK A01 T10781103  RH  083%=      5-min Rain = 0
KGO1 140829Z 14004KT M08/M10 A3033 RMK A01 T10781103  RH  083%=      5-min Rain = 0
KGO1 140830Z 14004KT M08/M10 A3033 RMK A01 T10781103  RH  083%=      5-min Rain = 0
KGO1 140831Z 14004KT M08/M10 A3033 RMK A01 T10781103  RH  083%=      5-min Rain = 0
KGO1 140832Z 14004KT M08/M10 A3033 RMK A01 T10781103  RH  082%=      5-min Rain = 0
KGO1 140833Z 14004KT M08/M10 A3033 RMK A01 T10781103  RH  082%=      5-min Rain = 0
KGO1 140834Z 14004KT M08/M10 A3033 RMK A01 T10781103  RH  082%=      5-min Rain = 0
KGO1 140835Z 15004KT M08/M10 A3033 RMK A01 T10781102  RH  083%=      5-min Rain = 0
KGO1 140836Z 15004KT M08/M10 A3033 RMK A01 T10781102  RH  083%=      5-min Rain = 0
KGO1 140837Z 15003KT M08/M10 A3033 RMK A01 T10781103  RH  083%=      5-min Rain = 0
KGO1 140838Z 15004KT M08/M10 A3033 RMK A01 T10781102  RH  083%=      5-min Rain = 0
KGO1 140839Z 15004KT M08/M10 A3033 RMK A01 T10781102  RH  083%=      5-min Rain = 0
KGO1 140840Z 15003KT M08/M10 A3033 RMK A01 T10781102  RH  083%=      5-min Rain = 0
KGO1 140841Z 15004KT M08/M10 A3033 RMK A01 T10771102  RH  083%=      5-min Rain = 0
KGO1 140842Z 15004KT M08/M10 A3033 RMK A01 T10771102  RH  083%=      5-min Rain = 0
KGO1 140843Z 15003KT M08/M10 A3033 RMK A01 T10771102  RH  083%=      5-min Rain = 0
KGO1 140844Z 15003KT M08/M10 A3033 RMK A01 T10771101  RH  083%=      5-min Rain = 0
KGO1 140845Z 15003KT M08/M10 A3033 RMK A01 T10771102  RH  082%=      5-min Rain = 0
KGO1 140846Z 15003KT M08/M10 A3033 RMK A01 T10771101  RH  083%=      5-min Rain = 0
KGO1 140847Z 15003KT M08/M10 A3033 RMK A01 T10761101  RH  083%=      5-min Rain = 0
KGO1 140848Z 15003KT M08/M10 A3033 RMK A01 T10761100  RH  083%=      5-min Rain = 0
KGO1 140849Z 15003KT M08/M10 A3033 RMK A01 T10761100  RH  083%=      5-min Rain = 0
KGO1 140850Z 15004KT M08/M10 A3033 RMK A01 T10751100  RH  083%=      5-min Rain = 0
KGO1 140851Z 15004KT M07/M10 A3033 RMK A01 T10741100  RH  082%=      5-min Rain = 0
KGO1 140852Z 15004KT M07/M10 A3033 RMK A01 T10741100  RH  081%=      5-min Rain = 0
KGO1 140853Z 15004KT M07/M10 A3033 RMK A01 T10731100  RH  081%=      5-min Rain = 0
KGO1 140854Z 15004KT M07/M10 A3033 RMK A01 T10731101  RH  080%=      5-min Rain = 0
KGO1 140855Z 15004KT M07/M10 A3033 RMK A01 T10721101  RH  080%=      5-min Rain = 0
KGO1 140856Z 15004KT M07/M10 A3033 RMK A01 T10721101  RH  080%=      5-min Rain = 0
KGO1 140857Z 16003KT M07/M10 A3033 RMK A01 T10721101  RH  080%=      5-min Rain = 0
KGO1 140858Z 16003KT M07/M10 A3033 RMK A01 T10711100  RH  080%=      5-min Rain = 0
KGO1 140859Z 16004KT M07/M10 A3033 RMK A01 T10711100  RH  079%=      5-min Rain = 0
KGO1 140900Z 16003KT M07/M10 A3033 RMK A01 T10711101  RH  079%=      5-min Rain = 0
KGO1 140901Z 16003KT M07/M10 A3033 RMK A01 T10711099  RH  080%=      5-min Rain = 0
KGO1 140902Z 15003KT M07/M10 A3033 RMK A01 T10701098  RH  081%=      5-min Rain = 0
KGO1 140903Z 15003KT M07/M10 A3033 RMK A01 T10701098  RH  080%=      5-min Rain = 0
KGO1 140904Z 15003KT M07/M10 A3033 RMK A01 T10701099  RH  080%=      5-min Rain = 0
KGO1 140905Z 15003KT M07/M10 A3033 RMK A01 T10701098  RH  081%=      5-min Rain = 0
KGO1 140906Z 16003KT M07/M10 A3033 RMK A01 T10701097  RH  081%=      5-min Rain = 0
KGO1 140907Z 16003KT M07/M10 A3033 RMK A01 T10701098  RH  081%=      5-min Rain = 0
KGO1 140908Z 16003KT M07/M10 A3033 RMK A01 T10701097  RH  081%=      5-min Rain = 0
KGO1 140909Z 16003KT M07/M10 A3033 RMK A01 T10691096  RH  081%=      5-min Rain = 0
KGO1 140910Z 17004KT M07/M10 A3033 RMK A01 T10701097  RH  081%=      5-min Rain = 0
KGO1 140911Z 18004KT M07/M10 A3033 RMK A01 T10691096  RH  081%=      5-min Rain = 0
KGO1 140912Z 17004KT M07/M10 A3033 RMK A01 T10691096  RH  081%=      5-min Rain = 0
KGO1 140913Z 17004KT M07/M10 A3033 RMK A01 T10691098  RH  080%=      5-min Rain = 0
KGO1 140914Z 18004KT M07/M10 A3033 RMK A01 T10691098  RH  080%=      5-min Rain = 0
KGO1 140915Z 17004KT M07/M10 A3033 RMK A01 T10691099  RH  079%=      5-min Rain = 0
KGO1 140916Z 17004KT M07/M10 A3033 RMK A01 T10691099  RH  079%=      5-min Rain = 0
KGO1 140917Z 17004KT M07/M10 A3033 RMK A01 T10691098  RH  080%=      5-min Rain = 0
KGO1 140918Z 17004KT M07/M10 A3033 RMK A01 T10691098  RH  080%=      5-min Rain = 0
KGO1 140919Z 18004KT M07/M10 A3033 RMK A01 T10691098  RH  080%=      5-min Rain = 0
KGO1 140920Z 17003KT M07/M10 A3033 RMK A01 T10691097  RH  080%=      5-min Rain = 0
KGO1 140921Z 16003KT M07/M10 A3033 RMK A01 T10691096  RH  081%=      5-min Rain = 0
KGO1 140922Z 16004KT M07/M10 A3033 RMK A01 T10691096  RH  081%=      5-min Rain = 0
KGO1 140923Z 16004KT M07/M10 A3033 RMK A01 T10691099  RH  079%=      5-min Rain = 0
KGO1 140924Z 16004KT M07/M10 A3033 RMK A01 T10691100  RH  079%=      5-min Rain = 0
KGO1 140925Z 16004KT M07/M10 A3033 RMK A01 T10691100  RH  079%=      5-min Rain = 0
KGO1 140926Z 16004KT M07/M10 A3033 RMK A01 T10691100  RH  079%=      5-min Rain = 0
KGO1 140927Z 17004KT M07/M10 A3033 RMK A01 T10691099  RH  079%=      5-min Rain = 0
KGO1 140928Z 15004KT M07/M10 A3033 RMK A01 T10691099  RH  079%=      5-min Rain = 0
KGO1 140929Z 16004KT M07/M10 A3033 RMK A01 T10681098  RH  079%=      5-min Rain = 0
KGO1 140930Z 17004KT M07/M10 A3033 RMK A01 T10691098  RH  080%=      5-min Rain = 0
KGO1 140931Z 16004KT M07/M10 A3033 RMK A01 T10691098  RH  080%=      5-min Rain = 0
KGO1 140932Z 17004KT M07/M10 A3033 RMK A01 T10691097  RH  080%=      5-min Rain = 0
KGO1 140933Z 16004KT M07/M10 A3033 RMK A01 T10691098  RH  080%=      5-min Rain = 0
KGO1 140934Z 15004KT M07/M10 A3033 RMK A01 T10691098  RH  079%=      5-min Rain = 0
KGO1 140935Z 16004KT M07/M10 A3033 RMK A01 T10691098  RH  080%=      5-min Rain = 0
KGO1 140936Z 16004KT M07/M10 A3033 RMK A01 T10691098  RH  079%=      5-min Rain = 0
KGO1 140937Z 16004KT M07/M10 A3033 RMK A01 T10691100  RH  079%=      5-min Rain = 0
KGO1 140938Z 15004KT M07/M10 A3033 RMK A01 T10691099  RH  079%=      5-min Rain = 0
KGO1 140939Z 15004KT M07/M10 A3033 RMK A01 T10691098  RH  080%=      5-min Rain = 0
KGO1 140940Z 15004KT M07/M10 A3033 RMK A01 T10691099  RH  079%=      5-min Rain = 0
KGO1 140941Z 15004KT M07/M10 A3033 RMK A01 T10691100  RH  078%=      5-min Rain = 0
KGO1 140942Z 14004KT M07/M10 A3033 RMK A01 T10681099  RH  079%=      5-min Rain = 0
KGO1 140943Z 15004KT M07/M10 A3033 RMK A01 T10691098  RH  080%=      5-min Rain = 0
KGO1 140944Z 14005KT M07/M10 A3033 RMK A01 T10691097  RH  080%=      5-min Rain = 0
KGO1 140945Z 16004KT M07/M10 A3033 RMK A01 T10691098  RH  080%=      5-min Rain = 0
KGO1 140946Z 16004KT M07/M10 A3033 RMK A01 T10681098  RH  080%=      5-min Rain = 0
KGO1 140947Z 15005KT M07/M10 A3033 RMK A01 T10681098  RH  079%=      5-min Rain = 0
KGO1 140948Z 15005KT M07/M10 A3033 RMK A01 T10681099  RH  079%=      5-min Rain = 0
KGO1 140949Z 14004KT M07/M10 A3033 RMK A01 T10681100  RH  078%=      5-min Rain = 0
KGO1 140950Z 14005KT M07/M10 A3033 RMK A01 T10691101  RH  078%=      5-min Rain = 0
KGO1 140951Z 15004KT M07/M10 A3033 RMK A01 T10691099  RH  079%=      5-min Rain = 0
KGO1 140952Z 16005KT M07/M10 A3033 RMK A01 T10681098  RH  079%=      5-min Rain = 0
KGO1 140953Z 15005KT M07/M10 A3033 RMK A01 T10691100  RH  078%=      5-min Rain = 0
KGO1 140954Z 15005KT M07/M10 A3032 RMK A01 T10681099  RH  079%=      5-min Rain = 0
KGO1 140955Z 16005KT M07/M10 A3032 RMK A01 T10681100  RH  078%=      5-min Rain = 0
KGO1 140956Z 15005KT M07/M10 A3032 RMK A01 T10681100  RH  078%=      5-min Rain = 0
KGO1 140957Z 16005KT M07/M10 A3032 RMK A01 T10681099  RH  079%=      5-min Rain = 0
KGO1 140958Z 15005KT M07/M10 A3032 RMK A01 T10681100  RH  078%=      5-min Rain = 0
KGO1 140959Z 15005KT M07/M10 A3032 RMK A01 T10681102  RH  077%=      5-min Rain = 0
KGO1 141000Z 16005KT M07/M10 A3032 RMK A01 T10691101  RH  078%=      5-min Rain = 0
KGO1 141001Z 16004KT M07/M10 A3032 RMK A01 T10691101  RH  078%=      5-min Rain = 0
KGO1 141002Z 16005KT M07/M10 A3032 RMK A01 T10691101  RH  078%=      5-min Rain = 0
KGO1 141003Z 17005KT M07/M10 A3032 RMK A01 T10691100  RH  078%=      5-min Rain = 0
KGO1 141004Z 16005KT M07/M10 A3032 RMK A01 T10691099  RH  079%=      5-min Rain = 0
KGO1 141005Z 15005KT M07/M10 A3032 RMK A01 T10691099  RH  079%=      5-min Rain = 0
KGO1 141006Z 14005KT M07/M10 A3032 RMK A01 T10691101  RH  078%=      5-min Rain = 0
KGO1 141007Z 15005KT M07/M10 A3032 RMK A01 T10691100  RH  078%=      5-min Rain = 0
KGO1 141008Z 15005KT M07/M10 A3032 RMK A01 T10691100  RH  079%=      5-min Rain = 0
KGO1 141009Z 15005KT M07/M10 A3032 RMK A01 T10691099  RH  079%=      5-min Rain = 0
KGO1 141010Z 15005KT M07/M10 A3032 RMK A01 T10691099  RH  079%=      5-min Rain = 0
KGO1 141011Z 15005KT M07/M10 A3032 RMK A01 T10691099  RH  079%=      5-min Rain = 0
KGO1 141012Z 15005KT M07/M10 A3032 RMK A01 T10691099  RH  079%=      5-min Rain = 0
KGO1 141013Z 15005KT M07/M10 A3032 RMK A01 T10691099  RH  079%=      5-min Rain = 0
KGO1 141014Z 15006KT M07/M10 A3032 RMK A01 T10691101  RH  078%=      5-min Rain = 0
KGO1 141015Z 15005KT M07/M10 A3032 RMK A01 T10691101  RH  078%=      5-min Rain = 0
KGO1 141016Z 15006KT M07/M10 A3032 RMK A01 T10691101  RH  078%=      5-min Rain = 0
KGO1 141017Z 15005KT M07/M10 A3032 RMK A01 T10691101  RH  078%=      5-min Rain = 0
KGO1 141018Z 16006KT M07/M10 A3032 RMK A01 T10691100  RH  079%=      5-min Rain = 0
KGO1 141019Z 16006KT M07/M10 A3032 RMK A01 T10691099  RH  079%=      5-min Rain = 0
KGO1 141020Z 16005KT M07/M10 A3032 RMK A01 T10701100  RH  079%=      5-min Rain = 0
KGO1 141021Z 16006KT M07/M10 A3032 RMK A01 T10701100  RH  079%=      5-min Rain = 0
KGO1 141022Z 16006KT M07/M10 A3032 RMK A01 T10701100  RH  079%=      5-min Rain = 0
KGO1 141023Z 16006KT M07/M10 A3032 RMK A01 T10711100  RH  080%=      5-min Rain = 0
KGO1 141024Z 16006KT M07/M10 A3032 RMK A01 T10701100  RH  080%=      5-min Rain = 0
KGO1 141025Z 15006KT M07/M10 A3032 RMK A01 T10701099  RH  080%=      5-min Rain = 0
KGO1 141026Z 15006KT M07/M10 A3032 RMK A01 T10711099  RH  080%=      5-min Rain = 0
KGO1 141027Z 15006KT M07/M10 A3032 RMK A01 T10711099  RH  080%=      5-min Rain = 0
KGO1 141028Z 15006KT M07/M10 A3032 RMK A01 T10711099  RH  080%=      5-min Rain = 0
KGO1 141029Z 15006KT M07/M10 A3032 RMK A01 T10711099  RH  080%=      5-min Rain = 0
KGO1 141030Z 15006KT M07/M10 A3032 RMK A01 T10711098  RH  081%=      5-min Rain = 0
KGO1 141031Z 14005KT M07/M10 A3032 RMK A01 T10711097  RH  081%=      5-min Rain = 0
KGO1 141032Z 15006KT M07/M10 A3032 RMK A01 T10711097  RH  081%=      5-min Rain = 0
KGO1 141033Z 15006KT M07/M10 A3032 RMK A01 T10711098  RH  081%=      5-min Rain = 0
KGO1 141034Z 15006KT M07/M10 A3032 RMK A01 T10711098  RH  081%=      5-min Rain = 0
KGO1 141035Z 14006KT M07/M10 A3031 RMK A01 T10711099  RH  081%=      5-min Rain = 0
KGO1 141036Z 14005KT M07/M10 A3031 RMK A01 T10711099  RH  080%=      5-min Rain = 0
KGO1 141037Z 14005KT M07/M10 A3031 RMK A01 T10721099  RH  081%=      5-min Rain = 0
KGO1 141038Z 14006KT M07/M10 A3031 RMK A01 T10711098  RH  081%=      5-min Rain = 0
KGO1 141039Z 14006KT M07/M10 A3031 RMK A01 T10721100  RH  080%=      5-min Rain = 0
KGO1 141040Z 14006KT M07/M10 A3031 RMK A01 T10721100  RH  080%=      5-min Rain = 0
KGO1 141041Z 14005KT M07/M10 A3031 RMK A01 T10721100  RH  080%=      5-min Rain = 0
KGO1 141042Z 15006KT M07/M10 A3031 RMK A01 T10721099  RH  081%=      5-min Rain = 0
KGO1 141043Z 14005KT M07/M10 A3031 RMK A01 T10721100  RH  081%=      5-min Rain = 0
KGO1 141044Z 15005KT M07/M10 A3031 RMK A01 T10721099  RH  081%=      5-min Rain = 0
KGO1 141045Z 14005KT M07/M10 A3031 RMK A01 T10721097  RH  082%=      5-min Rain = 0
KGO1 141046Z 14006KT M07/M10 A3031 RMK A01 T10721097  RH  082%=      5-min Rain = 0
KGO1 141047Z 15005KT M07/M10 A3031 RMK A01 T10721099  RH  081%=      5-min Rain = 0
KGO1 141048Z 14005KT M07/M10 A3031 RMK A01 T10721099  RH  081%=      5-min Rain = 0
KGO1 141049Z 15005KT M07/M10 A3031 RMK A01 T10721099  RH  081%=      5-min Rain = 0
KGO1 141050Z 15005KT M07/M10 A3031 RMK A01 T10731099  RH  082%=      5-min Rain = 0
KGO1 141051Z 15005KT M07/M10 A3031 RMK A01 T10721098  RH  082%=      5-min Rain = 0
KGO1 141052Z 15005KT M07/M10 A3031 RMK A01 T10721097  RH  083%=      5-min Rain = 0
KGO1 141053Z 14006KT M07/M10 A3031 RMK A01 T10721097  RH  083%=      5-min Rain = 0
KGO1 141054Z 14006KT M07/M10 A3031 RMK A01 T10721097  RH  082%=      5-min Rain = 0
KGO1 141055Z 14005KT M07/M10 A3031 RMK A01 T10721097  RH  082%=      5-min Rain = 0
KGO1 141056Z 15005KT M07/M10 A3031 RMK A01 T10721097  RH  083%=      5-min Rain = 0
KGO1 141057Z 14005KT M07/M10 A3031 RMK A01 T10721097  RH  083%=      5-min Rain = 0
KGO1 141058Z 14006KT M07/M10 A3031 RMK A01 T10721096  RH  083%=      5-min Rain = 0
KGO1 141059Z 15006KT M07/M10 A3031 RMK A01 T10721096  RH  083%=      5-min Rain = 0
KGO1 141100Z 15007KT M07/M10 A3031 RMK A01 T10721097  RH  083%=      5-min Rain = 0
KGO1 141101Z 15007KT M07/M10 A3031 RMK A01 T10721097  RH  082%=      5-min Rain = 0
KGO1 141102Z 15007KT M07/M10 A3031 RMK A01 T10721098  RH  082%=      5-min Rain = 0
KGO1 141103Z 15005KT M07/M10 A3031 RMK A01 T10721099  RH  081%=      5-min Rain = 0
KGO1 141104Z 14006KT M07/M10 A3031 RMK A01 T10721098  RH  082%=      5-min Rain = 0
KGO1 141105Z 14007KT M07/M10 A3031 RMK A01 T10711097  RH  082%=      5-min Rain = 0
KGO1 141106Z 14006KT M07/M10 A3031 RMK A01 T10711098  RH  082%=      5-min Rain = 0
KGO1 141107Z 14007KT M07/M10 A3031 RMK A01 T10721098  RH  081%=      5-min Rain = 0
KGO1 141108Z 14005KT M07/M10 A3031 RMK A01 T10711099  RH  081%=      5-min Rain = 0
KGO1 141109Z 14006KT M07/M10 A3031 RMK A01 T10711098  RH  081%=      5-min Rain = 0
KGO1 141110Z 15006KT M07/M10 A3031 RMK A01 T10721099  RH  081%=      5-min Rain = 0
KGO1 141111Z 15007KT M07/M10 A3031 RMK A01 T10711099  RH  081%=      5-min Rain = 0
KGO1 141112Z 15006KT M07/M10 A3031 RMK A01 T10711100  RH  080%=      5-min Rain = 0
KGO1 141113Z 15007KT M07/M10 A3031 RMK A01 T10711100  RH  080%=      5-min Rain = 0
KGO1 141114Z 15006KT M07/M10 A3031 RMK A01 T10721100  RH  080%=      5-min Rain = 0
KGO1 141115Z 16006KT M07/M10 A3031 RMK A01 T10711099  RH  081%=      5-min Rain = 0
KGO1 141116Z 16006KT M07/M10 A3031 RMK A01 T10711098  RH  081%=      5-min Rain = 0
KGO1 141117Z 15006KT M07/M10 A3031 RMK A01 T10711098  RH  081%=      5-min Rain = 0
KGO1 141118Z 16006KT M07/M10 A3031 RMK A01 T10711098  RH  081%=      5-min Rain = 0
KGO1 141119Z 16007KT M07/M10 A3031 RMK A01 T10711099  RH  080%=      5-min Rain = 0
KGO1 141120Z 17007KT M07/M10 A3031 RMK A01 T10711100  RH  080%=      5-min Rain = 0
KGO1 141121Z 17007KT M07/M10 A3031 RMK A01 T10711100  RH  080%=      5-min Rain = 0
KGO1 141122Z 17006KT M07/M10 A3031 RMK A01 T10711100  RH  080%=      5-min Rain = 0
KGO1 141123Z 15006KT M07/M10 A3031 RMK A01 T10711099  RH  080%=      5-min Rain = 0
KGO1 141124Z 17007KT M07/M10 A3031 RMK A01 T10711099  RH  080%=      5-min Rain = 0
KGO1 141125Z 16006KT M07/M10 A3031 RMK A01 T10701099  RH  080%=      5-min Rain = 0
KGO1 141126Z 16007KT M07/M10 A3031 RMK A01 T10711100  RH  080%=      5-min Rain = 0
KGO1 141127Z 16007KT M07/M10 A3031 RMK A01 T10701101  RH  079%=      5-min Rain = 0
KGO1 141128Z 15006KT M07/M10 A3031 RMK A01 T10711101  RH  079%=      5-min Rain = 0
KGO1 141129Z 15007KT M07/M10 A3031 RMK A01 T10701101  RH  079%=      5-min Rain = 0
KGO1 141130Z 14006KT M07/M10 A3031 RMK A01 T10701102  RH  078%=      5-min Rain = 0
KGO1 141131Z 14007KT M07/M10 A3031 RMK A01 T10711102  RH  079%=      5-min Rain = 0
KGO1 141132Z 15007KT M07/M10 A3031 RMK A01 T10711102  RH  079%=      5-min Rain = 0
KGO1 141133Z 15007KT M07/M10 A3031 RMK A01 T10711101  RH  079%=      5-min Rain = 0
KGO1 141134Z 15006KT M07/M10 A3031 RMK A01 T10711101  RH  079%=      5-min Rain = 0
KGO1 141135Z 15006KT M07/M10 A3031 RMK A01 T10711102  RH  079%=      5-min Rain = 0
KGO1 141136Z 15007KT M07/M10 A3031 RMK A01 T10711102  RH  079%=      5-min Rain = 0
KGO1 141137Z 15006KT M07/M10 A3031 RMK A01 T10711102  RH  079%=      5-min Rain = 0
KGO1 141138Z 17007KT M07/M10 A3031 RMK A01 T10711103  RH  078%=      5-min Rain = 0
KGO1 141139Z 16007KT M07/M10 A3031 RMK A01 T10711102  RH  078%=      5-min Rain = 0
KGO1 141140Z 16007KT M07/M10 A3031 RMK A01 T10711102  RH  078%=      5-min Rain = 0
KGO1 141141Z 16007KT M07/M10 A3031 RMK A01 T10711102  RH  078%=      5-min Rain = 0
KGO1 141142Z 15006KT M07/M10 A3031 RMK A01 T10711103  RH  078%=      5-min Rain = 0
KGO1 141143Z 16007KT M07/M10 A3031 RMK A01 T10711102  RH  079%=      5-min Rain = 0
KGO1 141144Z 17005KT M07/M10 A3031 RMK A01 T10711102  RH  078%=      5-min Rain = 0
KGO1 141145Z 16007KT M07/M10 A3032 RMK A01 T10711101  RH  079%=      5-min Rain = 0
KGO1 141146Z 16008KT M07/M10 A3032 RMK A01 T10701101  RH  079%=      5-min Rain = 0
KGO1 141147Z 16008KT M07/M10 A3032 RMK A01 T10701102  RH  078%=      5-min Rain = 0
KGO1 141148Z 16008KT M07/M10 A3032 RMK A01 T10711103  RH  078%=      5-min Rain = 0
KGO1 141149Z 16008KT M07/M10 A3032 RMK A01 T10711103  RH  078%=      5-min Rain = 0
KGO1 141150Z 15007KT M07/M10 A3032 RMK A01 T10711102  RH  078%=      5-min Rain = 0
KGO1 141151Z 16008KT M07/M10 A3032 RMK A01 T10701100  RH  079%=      5-min Rain = 0
KGO1 141152Z 17007KT M07/M10 A3032 RMK A01 T10701102  RH  078%=      5-min Rain = 0
KGO1 141153Z 17008KT M07/M10 A3032 RMK A01 T10701102  RH  078%=      5-min Rain = 0
KGO1 141154Z 16007KT M07/M10 A3032 RMK A01 T10701102  RH  078%=      5-min Rain = 0
KGO1 141155Z 16007KT M07/M10 A3032 RMK A01 T10701102  RH  078%=      5-min Rain = 0
KGO1 141156Z 16008KT M07/M10 A3032 RMK A01 T10701102  RH  078%=      5-min Rain = 0
KGO1 141157Z 16007KT M07/M10 A3032 RMK A01 T10701102  RH  078%=      5-min Rain = 0
KGO1 141158Z 16008KT M07/M10 A3032 RMK A01 T10701103  RH  077%=      5-min Rain = 0
KGO1 141159Z 16008KT M07/M10 A3032 RMK A01 T10711104  RH  077%=      5-min Rain = 0
KGO1 141200Z 15007KT M07/M10 A3032 RMK A01 T10711104  RH  077%=      5-min Rain = 0
KGO1 141201Z 15007KT M07/M10 A3032 RMK A01 T10711104  RH  078%=      5-min Rain = 0
KGO1 141202Z 16006KT M07/M10 A3032 RMK A01 T10711103  RH  078%=      5-min Rain = 0
KGO1 141203Z 16007KT M07/M10 A3032 RMK A01 T10711103  RH  078%=      5-min Rain = 0
KGO1 141204Z 15007KT M07/M10 A3032 RMK A01 T10711103  RH  078%=      5-min Rain = 0
KGO1 141205Z 15007KT M07/M10 A3032 RMK A01 T10701103  RH  077%=      5-min Rain = 0
KGO1 141206Z 15007KT M07/M10 A3032 RMK A01 T10711104  RH  077%=      5-min Rain = 0
KGO1 141207Z 16007KT M07/M11 A3032 RMK A01 T10711105  RH  077%=      5-min Rain = 0
KGO1 141208Z 15006KT M07/M10 A3032 RMK A01 T10711104  RH  077%=      5-min Rain = 0
KGO1 141209Z 15007KT M07/M10 A3031 RMK A01 T10711104  RH  077%=      5-min Rain = 0
KGO1 141210Z 16007KT M07/M10 A3031 RMK A01 T10711104  RH  078%=      5-min Rain = 0
KGO1 141211Z 16006KT M07/M10 A3032 RMK A01 T10711103  RH  078%=      5-min Rain = 0
KGO1 141212Z 16007KT M07/M10 A3032 RMK A01 T10711103  RH  078%=      5-min Rain = 0
KGO1 141213Z 16007KT M07/M10 A3032 RMK A01 T10711103  RH  078%=      5-min Rain = 0
KGO1 141214Z 16006KT M07/M10 A3032 RMK A01 T10711104  RH  078%=      5-min Rain = 0
KGO1 141215Z 15006KT M07/M10 A3032 RMK A01 T10711103  RH  078%=      5-min Rain = 0
KGO1 141216Z 14007KT M07/M10 A3032 RMK A01 T10711103  RH  078%=      5-min Rain = 0
KGO1 141217Z 15007KT M07/M10 A3032 RMK A01 T10711102  RH  079%=      5-min Rain = 0
KGO1 141218Z 15006KT M07/M10 A3032 RMK A01 T10711101  RH  079%=      5-min Rain = 0
KGO1 141219Z 15007KT M07/M10 A3032 RMK A01 T10701099  RH  080%=      5-min Rain = 0
KGO1 141220Z 16009KT M07/M10 A3032 RMK A01 T10701100  RH  079%=      5-min Rain = 0
KGO1 141221Z 15008KT M07/M10 A3032 RMK A01 T10701103  RH  077%=      5-min Rain = 0
KGO1 141222Z 15008KT M07/M10 A3032 RMK A01 T10701104  RH  077%=      5-min Rain = 0
KGO1 141223Z 16008KT M07/M10 A3031 RMK A01 T10711104  RH  077%=      5-min Rain = 0
KGO1 141224Z 15008KT M07/M10 A3031 RMK A01 T10711104  RH  077%=      5-min Rain = 0
KGO1 141225Z 16009KT M07/M10 A3031 RMK A01 T10701104  RH  077%=      5-min Rain = 0
KGO1 141226Z 15009KT M07/M11 A3031 RMK A01 T10711105  RH  077%=      5-min Rain = 0
KGO1 141227Z 16008KT M07/M11 A3031 RMK A01 T10701105  RH  077%=      5-min Rain = 0
KGO1 141228Z 16008KT M07/M11 A3032 RMK A01 T10701105  RH  076%=      5-min Rain = 0
KGO1 141229Z 16008KT M07/M11 A3032 RMK A01 T10711105  RH  076%=      5-min Rain = 0
KGO1 141230Z 16007KT M07/M10 A3032 RMK A01 T10711103  RH  077%=      5-min Rain = 0
KGO1 141231Z 16007KT M07/M10 A3032 RMK A01 T10701103  RH  078%=      5-min Rain = 0
KGO1 141232Z 16007KT M07/M10 A3032 RMK A01 T10711103  RH  078%=      5-min Rain = 0
KGO1 141233Z 16007KT M07/M10 A3032 RMK A01 T10701102  RH  078%=      5-min Rain = 0
KGO1 141234Z 15008KT M07/M10 A3032 RMK A01 T10701101  RH  079%=      5-min Rain = 0
KGO1 141235Z 15009KT M07/M10 A3032 RMK A01 T10701101  RH  078%=      5-min Rain = 0
KGO1 141236Z 15009KT M07/M10 A3032 RMK A01 T10701104  RH  077%=      5-min Rain = 0
KGO1 141237Z 15009KT M07/M11 A3031 RMK A01 T10711105  RH  077%=      5-min Rain = 0
KGO1 141238Z 15009KT M07/M11 A3031 RMK A01 T10711105  RH  077%=      5-min Rain = 0
KGO1 141239Z 15009KT M07/M11 A3031 RMK A01 T10711105  RH  077%=      5-min Rain = 0
KGO1 141240Z 15008KT M07/M10 A3031 RMK A01 T10711104  RH  077%=      5-min Rain = 0
KGO1 141241Z 15008KT M07/M10 A3031 RMK A01 T10711103  RH  078%=      5-min Rain = 0
KGO1 141242Z 15008KT M07/M10 A3031 RMK A01 T10711103  RH  078%=      5-min Rain = 0
KGO1 141243Z 15009KT M07/M10 A3031 RMK A01 T10711103  RH  078%=      5-min Rain = 0
KGO1 141244Z 15009KT M07/M10 A3031 RMK A01 T10711103  RH  078%=      5-min Rain = 0
KGO1 141245Z 15008KT M07/M10 A3031 RMK A01 T10711103  RH  078%=      5-min Rain = 0
KGO1 141246Z 16009KT M07/M10 A3031 RMK A01 T10711103  RH  078%=      5-min Rain = 0
KGO1 141247Z 16008KT M07/M10 A3031 RMK A01 T10711103  RH  078%=      5-min Rain = 0
KGO1 141248Z 16008KT M07/M10 A3031 RMK A01 T10721104  RH  078%=      5-min Rain = 0
KGO1 141249Z 15008KT M07/M10 A3031 RMK A01 T10721103  RH  079%=      5-min Rain = 0
KGO1 141250Z 15008KT M07/M10 A3031 RMK A01 T10711103  RH  078%=      5-min Rain = 0
KGO1 141251Z 16009KT M07/M10 A3031 RMK A01 T10711103  RH  078%=      5-min Rain = 0
KGO1 141252Z 16008KT M07/M10 A3031 RMK A01 T10711103  RH  078%=      5-min Rain = 0
KGO1 141253Z 16008KT M07/M10 A3031 RMK A01 T10711104  RH  078%=      5-min Rain = 0
KGO1 141254Z 16008KT M07/M10 A3031 RMK A01 T10721104  RH  078%=      5-min Rain = 0
KGO1 141255Z 16008KT M07/M10 A3031 RMK A01 T10721103  RH  078%=      5-min Rain = 0
KGO1 141256Z 15008KT M07/M10 A3031 RMK A01 T10711102  RH  079%=      5-min Rain = 0
KGO1 141257Z 16008KT M07/M10 A3031 RMK A01 T10711101  RH  079%=      5-min Rain = 0
KGO1 141258Z 17009KT M07/M10 A3031 RMK A01 T10711101  RH  080%=      5-min Rain = 0
KGO1 141259Z 16007KT M07/M10 A3031 RMK A01 T10711101  RH  079%=      5-min Rain = 0
KGO1 141300Z 16008KT M07/M10 A3031 RMK A01 T10711101  RH  080%=      5-min Rain = 0
KGO1 141301Z 16009KT M07/M10 A3031 RMK A01 T10711101  RH  080%=      5-min Rain = 0
KGO1 141302Z 17007KT M07/M10 A3031 RMK A01 T10721101  RH  080%=      5-min Rain = 0
KGO1 141303Z 16008KT M07/M10 A3031 RMK A01 T10721100  RH  080%=      5-min Rain = 0
KGO1 141304Z 16008KT M07/M10 A3031 RMK A01 T10721099  RH  081%=      5-min Rain = 0
KGO1 141305Z 17007KT M07/M10 A3031 RMK A01 T10711098  RH  081%=      5-min Rain = 0
KGO1 141306Z 17008KT M07/M10 A3031 RMK A01 T10711097  RH  081%=      5-min Rain = 0
KGO1 141307Z 17009KT M07/M10 A3031 RMK A01 T10711098  RH  081%=      5-min Rain = 0
KGO1 141308Z 17010KT M07/M10 A3031 RMK A01 T10701100  RH  080%=      5-min Rain = 0
KGO1 141309Z 17010KT M07/M10 A3031 RMK A01 T10711102  RH  079%=      5-min Rain = 0
KGO1 141310Z 17009KT M07/M10 A3031 RMK A01 T10711103  RH  078%=      5-min Rain = 0
KGO1 141311Z 17010KT M07/M10 A3031 RMK A01 T10711101  RH  079%=      5-min Rain = 0
KGO1 141312Z 17010KT M07/M10 A3031 RMK A01 T10711103  RH  078%=      5-min Rain = 0
KGO1 141313Z 17010KT M07/M10 A3031 RMK A01 T10711103  RH  078%=      5-min Rain = 0
KGO1 141314Z 17011KT M07/M10 A3031 RMK A01 T10711103  RH  078%=      5-min Rain = 0
KGO1 141315Z 17010KT M07/M10 A3031 RMK A01 T10711104  RH  077%=      5-min Rain = 0
KGO1 141316Z 16010KT M07/M10 A3031 RMK A01 T10711104  RH  077%=      5-min Rain = 0
KGO1 141317Z 17010KT M07/M10 A3031 RMK A01 T10711103  RH  078%=      5-min Rain = 0
KGO1 141318Z 16010KT M07/M10 A3031 RMK A01 T10721104  RH  078%=      5-min Rain = 0
KGO1 141319Z 16010KT M07/M10 A3031 RMK A01 T10721104  RH  078%=      5-min Rain = 0
KGO1 141320Z 16010KT M07/M10 A3031 RMK A01 T10721104  RH  078%=      5-min Rain = 0
KGO1 141321Z 16010KT M07/M10 A3031 RMK A01 T10721103  RH  078%=      5-min Rain = 0
KGO1 141322Z 16009KT M07/M10 A3031 RMK A01 T10721104  RH  078%=      5-min Rain = 0
KGO1 141323Z 16009KT M07/M10 A3031 RMK A01 T10721103  RH  078%=      5-min Rain = 0
KGO1 141324Z 17009KT M07/M10 A3032 RMK A01 T10711103  RH  078%=      5-min Rain = 0
KGO1 141325Z 17009KT M07/M10 A3032 RMK A01 T10721103  RH  078%=      5-min Rain = 0
KGO1 141326Z 17009KT M07/M10 A3032 RMK A01 T10721103  RH  078%=      5-min Rain = 0
KGO1 141327Z 17009KT M07/M10 A3032 RMK A01 T10721103  RH  078%=      5-min Rain = 0
KGO1 141328Z 17009KT M07/M10 A3032 RMK A01 T10721104  RH  078%=      5-min Rain = 0
KGO1 141329Z 16009KT M07/M10 A3032 RMK A01 T10721103  RH  079%=      5-min Rain = 0
KGO1 141330Z 17008KT M07/M10 A3032 RMK A01 T10721102  RH  079%=      5-min Rain = 0
KGO1 141331Z 17008KT M07/M10 A3032 RMK A01 T10721102  RH  079%=      5-min Rain = 0
KGO1 141332Z 17008KT M07/M10 A3032 RMK A01 T10721102  RH  079%=      5-min Rain = 0
KGO1 141333Z 16009KT M07/M10 A3032 RMK A01 T10721103  RH  079%=      5-min Rain = 0
KGO1 141334Z 16008KT M07/M10 A3032 RMK A01 T10721103  RH  079%=      5-min Rain = 0
KGO1 141335Z 16010KT M07/M10 A3032 RMK A01 T10721102  RH  079%=      5-min Rain = 0
KGO1 141336Z 16009KT M07/M10 A3032 RMK A01 T10721102  RH  079%=      5-min Rain = 0
KGO1 141337Z 17009KT M07/M10 A3032 RMK A01 T10721102  RH  079%=      5-min Rain = 0
KGO1 141338Z 15009KT M07/M10 A3032 RMK A01 T10721102  RH  079%=      5-min Rain = 0
KGO1 141339Z 15008KT M07/M10 A3032 RMK A01 T10721102  RH  079%=      5-min Rain = 0
KGO1 141340Z 16009KT M07/M10 A3032 RMK A01 T10721102  RH  079%=      5-min Rain = 0
KGO1 141341Z 16008KT M07/M10 A3032 RMK A01 T10721102  RH  079%=      5-min Rain = 0
KGO1 141342Z 15008KT M07/M10 A3032 RMK A01 T10721102  RH  079%=      5-min Rain = 0
KGO1 141343Z 16009KT M07/M10 A3032 RMK A01 T10721102  RH  079%=      5-min Rain = 0
KGO1 141344Z 16009KT M07/M10 A3032 RMK A01 T10721102  RH  079%=      5-min Rain = 0
KGO1 141345Z 16010KT M07/M10 A3032 RMK A01 T10721101  RH  080%=      5-min Rain = 0
KGO1 141346Z 16009KT M07/M10 A3032 RMK A01 T10721102  RH  080%=      5-min Rain = 0
KGO1 141347Z 16009KT M07/M10 A3033 RMK A01 T10721101  RH  080%=      5-min Rain = 0
KGO1 141348Z 16010KT M07/M10 A3033 RMK A01 T10721101  RH  080%=      5-min Rain = 0
KGO1 141349Z 16011KT M07/M10 A3033 RMK A01 T10721102  RH  079%=      5-min Rain = 0
KGO1 141350Z 16010KT M07/M10 A3033 RMK A01 T10721102  RH  079%=      5-min Rain = 0
KGO1 141351Z 16009KT M07/M10 A3033 RMK A01 T10731103  RH  079%=      5-min Rain = 0
KGO1 141352Z 16009KT M07/M10 A3032 RMK A01 T10731103  RH  079%=      5-min Rain = 0
KGO1 141353Z 17009KT M07/M10 A3032 RMK A01 T10731103  RH  079%=      5-min Rain = 0
KGO1 141354Z 17009KT M07/M10 A3033 RMK A01 T10731102  RH  079%=      5-min Rain = 0
KGO1 141355Z 17009KT M07/M10 A3033 RMK A01 T10731103  RH  079%=      5-min Rain = 0
KGO1 141356Z 17008KT M07/M10 A3033 RMK A01 T10731103  RH  079%=      5-min Rain = 0
KGO1 141357Z 17008KT M07/M10 A3033 RMK A01 T10731103  RH  079%=      5-min Rain = 0
KGO1 141358Z 16008KT M07/M10 A3033 RMK A01 T10731102  RH  080%=      5-min Rain = 0
KGO1 141359Z 16008KT M07/M10 A3033 RMK A01 T10731102  RH  080%=      5-min Rain = 0
KGO1 141400Z 15008KT M07/M10 A3033 RMK A01 T10731102  RH  080%=      5-min Rain = 0
KGO1 141401Z 15008KT M07/M10 A3032 RMK A01 T10731102  RH  080%=      5-min Rain = 0
KGO1 141402Z 15008KT M07/M10 A3032 RMK A01 T10721101  RH  080%=      5-min Rain = 0
KGO1 141403Z 16009KT M07/M10 A3032 RMK A01 T10721102  RH  079%=      5-min Rain = 0
KGO1 141404Z 16009KT M07/M10 A3032 RMK A01 T10721102  RH  080%=      5-min Rain = 0
KGO1 141405Z 16010KT M07/M10 A3033 RMK A01 T10721101  RH  080%=      5-min Rain = 0
KGO1 141406Z 16010KT M07/M10 A3032 RMK A01 T10721102  RH  079%=      5-min Rain = 0
KGO1 141407Z 16010KT M07/M10 A3032 RMK A01 T10721102  RH  079%=      5-min Rain = 0
KGO1 141408Z 15010KT M07/M10 A3032 RMK A01 T10721103  RH  079%=      5-min Rain = 0
KGO1 141409Z 16009KT M07/M10 A3032 RMK A01 T10721101  RH  080%=      5-min Rain = 0
KGO1 141410Z 16010KT M07/M10 A3032 RMK A01 T10721101  RH  080%=      5-min Rain = 0
KGO1 141411Z 16009KT M07/M10 A3032 RMK A01 T10721101  RH  080%=      5-min Rain = 0
KGO1 141412Z 17010KT M07/M10 A3032 RMK A01 T10721101  RH  080%=      5-min Rain = 0
KGO1 141413Z 16010KT M07/M10 A3032 RMK A01 T10721101  RH  079%=      5-min Rain = 0
KGO1 141414Z 16010KT M07/M10 A3033 RMK A01 T10711101  RH  079%=      5-min Rain = 0
KGO1 141415Z 16011KT M07/M10 A3033 RMK A01 T10711101  RH  079%=      5-min Rain = 0
KGO1 141416Z 16011KT M07/M10 A3032 RMK A01 T10711102  RH  078%=      5-min Rain = 0
KGO1 141417Z 16010KT M07/M10 A3032 RMK A01 T10711102  RH  078%=      5-min Rain = 0
KGO1 141418Z 16011KT M07/M10 A3033 RMK A01 T10711103  RH  078%=      5-min Rain = 0
KGO1 141419Z 16010KT M07/M10 A3033 RMK A01 T10721104  RH  078%=      5-min Rain = 0
KGO1 141420Z 17009KT M07/M10 A3033 RMK A01 T10711103  RH  078%=      5-min Rain = 0
KGO1 141421Z 16010KT M07/M10 A3033 RMK A01 T10711102  RH  079%=      5-min Rain = 0
KGO1 141422Z 17010KT M07/M10 A3033 RMK A01 T10701101  RH  078%=      5-min Rain = 0
KGO1 141423Z 17010KT M07/M10 A3033 RMK A01 T10701102  RH  078%=      5-min Rain = 0
KGO1 141424Z 16010KT M07/M10 A3033 RMK A01 T10701102  RH  078%=      5-min Rain = 0
KGO1 141425Z 16010KT M07/M10 A3033 RMK A01 T10711102  RH  078%=      5-min Rain = 0
KGO1 141426Z 16009KT M07/M10 A3033 RMK A01 T10701101  RH  079%=      5-min Rain = 0
KGO1 141427Z 16009KT M07/M10 A3033 RMK A01 T10701100  RH  079%=      5-min Rain = 0
KGO1 141428Z 15009KT M07/M10 A3033 RMK A01 T10701100  RH  079%=      5-min Rain = 0
KGO1 141429Z 15009KT M07/M10 A3033 RMK A01 T10701101  RH  079%=      5-min Rain = 0
KGO1 141430Z 16010KT M07/M10 A3033 RMK A01 T10701101  RH  078%=      5-min Rain = 0
KGO1 141431Z 16010KT M07/M10 A3033 RMK A01 T10701102  RH  078%=      5-min Rain = 0
KGO1 141432Z 17010KT M07/M10 A3033 RMK A01 T10701103  RH  077%=      5-min Rain = 0
KGO1 141433Z 17010KT M07/M10 A3033 RMK A01 T10701103  RH  077%=      5-min Rain = 0
KGO1 141434Z 17011KT M07/M10 A3033 RMK A01 T10691102  RH  077%=      5-min Rain = 0
KGO1 141435Z 17011KT M07/M10 A3033 RMK A01 T10691104  RH  076%=      5-min Rain = 0
KGO1 141436Z 16011KT M07/M11 A3033 RMK A01 T10691105  RH  076%=      5-min Rain = 0
KGO1 141437Z 16011KT M07/M11 A3033 RMK A01 T10691105  RH  076%=      5-min Rain = 0
KGO1 141438Z 16012KT M07/M10 A3033 RMK A01 T10701104  RH  077%=      5-min Rain = 0
KGO1 141439Z 16010KT M07/M10 A3033 RMK A01 T10701104  RH  076%=      5-min Rain = 0
KGO1 141440Z 17010KT M07/M10 A3033 RMK A01 T10691104  RH  076%=      5-min Rain = 0
KGO1 141441Z 16011KT M07/M10 A3033 RMK A01 T10701104  RH  076%=      5-min Rain = 0
KGO1 141442Z 16010KT M07/M10 A3033 RMK A01 T10701104  RH  076%=      5-min Rain = 0
KGO1 141443Z 16010KT M07/M10 A3033 RMK A01 T10691104  RH  077%=      5-min Rain = 0
KGO1 141444Z 16010KT M07/M10 A3033 RMK A01 T10701104  RH  077%=      5-min Rain = 0
KGO1 141445Z 16010KT M07/M10 A3033 RMK A01 T10701103  RH  077%=      5-min Rain = 0
KGO1 141446Z 16009KT M07/M10 A3033 RMK A01 T10701104  RH  077%=      5-min Rain = 0
KGO1 141447Z 17010KT M07/M10 A3033 RMK A01 T10701103  RH  077%=      5-min Rain = 0
KGO1 141448Z 16010KT M07/M10 A3033 RMK A01 T10691102  RH  078%=      5-min Rain = 0
KGO1 141449Z 16011KT M07/M10 A3033 RMK A01 T10681101  RH  078%=      5-min Rain = 0
KGO1 141450Z 16011KT M07/M10 A3033 RMK A01 T10681102  RH  077%=      5-min Rain = 0
KGO1 141451Z 16011KT M07/M10 A3033 RMK A01 T10691103  RH  076%=      5-min Rain = 0
KGO1 141452Z 16010KT M07/M10 A3033 RMK A01 T10681102  RH  077%=      5-min Rain = 0
KGO1 141453Z 16011KT M07/M10 A3033 RMK A01 T10691102  RH  077%=      5-min Rain = 0
KGO1 141454Z 17010KT M07/M10 A3033 RMK A01 T10681102  RH  077%=      5-min Rain = 0
KGO1 141455Z 16011KT M07/M10 A3033 RMK A01 T10681102  RH  077%=      5-min Rain = 0
KGO1 141456Z 16008KT M07/M10 A3033 RMK A01 T10681102  RH  077%=      5-min Rain = 0
KGO1 141457Z 17009KT M07/M10 A3033 RMK A01 T10681101  RH  078%=      5-min Rain = 0
KGO1 141458Z 16010KT M07/M10 A3033 RMK A01 T10671101  RH  077%=      5-min Rain = 0
KGO1 141459Z 16011KT M07/M10 A3033 RMK A01 T10671101  RH  077%=      5-min Rain = 0
KGO1 141500Z 16011KT M07/M10 A3033 RMK A01 T10671102  RH  076%=      5-min Rain = 0
KGO1 141501Z 17012KT M07/M10 A3033 RMK A01 T10681103  RH  076%=      5-min Rain = 0
KGO1 141502Z 16010KT M07/M10 A3033 RMK A01 T10681104  RH  076%=      5-min Rain = 0
KGO1 141503Z 16010KT M07/M10 A3033 RMK A01 T10691103  RH  077%=      5-min Rain = 0
KGO1 141504Z 16010KT M07/M10 A3033 RMK A01 T10681102  RH  077%=      5-min Rain = 0
KGO1 141505Z 17010KT M07/M10 A3033 RMK A01 T10681101  RH  077%=      5-min Rain = 0
KGO1 141506Z 16011KT M07/M10 A3033 RMK A01 T10681104  RH  076%=      5-min Rain = 0
KGO1 141507Z 16009KT M07/M10 A3033 RMK A01 T10691104  RH  076%=      5-min Rain = 0
KGO1 141508Z 15010KT M07/M10 A3033 RMK A01 T10691103  RH  077%=      5-min Rain = 0
KGO1 141509Z 16009KT M07/M10 A3033 RMK A01 T10691103  RH  077%=      5-min Rain = 0
KGO1 141510Z 16008KT M07/M10 A3033 RMK A01 T10691102  RH  077%=      5-min Rain = 0
KGO1 141511Z 16009KT M07/M10 A3033 RMK A01 T10681101  RH  077%=      5-min Rain = 0
KGO1 141512Z 15010KT M07/M10 A3033 RMK A01 T10681101  RH  077%=      5-min Rain = 0
KGO1 141513Z 16010KT M07/M10 A3033 RMK A01 T10681101  RH  077%=      5-min Rain = 0
KGO1 141514Z 16008KT M07/M10 A3033 RMK A01 T10681102  RH  077%=      5-min Rain = 0
KGO1 141515Z 16010KT M07/M10 A3033 RMK A01 T10681101  RH  077%=      5-min Rain = 0
KGO1 141516Z 16009KT M07/M10 A3033 RMK A01 T10671101  RH  077%=      5-min Rain = 0
KGO1 141517Z 17009KT M07/M10 A3033 RMK A01 T10671100  RH  077%=      5-min Rain = 0
KGO1 141518Z 17009KT M07/M10 A3033 RMK A01 T10671101  RH  077%=      5-min Rain = 0
KGO1 141519Z 16009KT M07/M10 A3033 RMK A01 T10671101  RH  077%=      5-min Rain = 0
KGO1 141520Z 17010KT M07/M10 A3033 RMK A01 T10671100  RH  077%=      5-min Rain = 0
KGO1 141521Z 16011KT M07/M10 A3033 RMK A01 T10661100  RH  077%=      5-min Rain = 0
KGO1 141522Z 16011KT M07/M10 A3033 RMK A01 T10671101  RH  076%=      5-min Rain = 0
KGO1 141523Z 16011KT M07/M10 A3033 RMK A01 T10661101  RH  077%=      5-min Rain = 0
KGO1 141524Z 17011KT M07/M10 A3033 RMK A01 T10661100  RH  077%=      5-min Rain = 0
KGO1 141525Z 16011KT M07/M10 A3033 RMK A01 T10671101  RH  077%=      5-min Rain = 0
KGO1 141526Z 17011KT M07/M10 A3033 RMK A01 T10661101  RH  076%=      5-min Rain = 0
KGO1 141527Z 16011KT M07/M10 A3033 RMK A01 T10661101  RH  077%=      5-min Rain = 0
KGO1 141528Z 17010KT M07/M10 A3033 RMK A01 T10661100  RH  077%=      5-min Rain = 0
KGO1 141529Z 17010KT M07/M10 A3033 RMK A01 T10651097  RH  078%=      5-min Rain = 0
KGO1 141530Z 16009KT M07/M10 A3033 RMK A01 T10651097  RH  078%=      5-min Rain = 0
KGO1 141531Z 17010KT M06/M10 A3033 RMK A01 T10641097  RH  077%=      5-min Rain = 0
KGO1 141532Z 18011KT M06/M10 A3033 RMK A01 T10641096  RH  078%=      5-min Rain = 0
KGO1 141533Z 17010KT M06/M10 A3033 RMK A01 T10631096  RH  078%=      5-min Rain = 0
KGO1 141534Z 17012KT M06/M10 A3033 RMK A01 T10631097  RH  077%=      5-min Rain = 0
KGO1 141535Z 17012KT M06/M10 A3033 RMK A01 T10641098  RH  077%=      5-min Rain = 0
KGO1 141536Z 17012KT M06/M10 A3033 RMK A01 T10641097  RH  077%=      5-min Rain = 0
KGO1 141537Z 16012KT M06/M10 A3033 RMK A01 T10641097  RH  077%=      5-min Rain = 0
KGO1 141538Z 17013KT M06/M10 A3033 RMK A01 T10641097  RH  078%=      5-min Rain = 0
KGO1 141539Z 17012KT M06/M10 A3033 RMK A01 T10641095  RH  079%=      5-min Rain = 0
KGO1 141540Z 17012KT M06/M10 A3033 RMK A01 T10641095  RH  079%=      5-min Rain = 0
KGO1 141541Z 17011KT M06/M09 A3033 RMK A01 T10641094  RH  079%=      5-min Rain = 0
KGO1 141542Z 17012KT M06/M09 A3033 RMK A01 T10631093  RH  079%=      5-min Rain = 0
KGO1 141543Z 16012KT M06/M09 A3033 RMK A01 T10631093  RH  079%=      5-min Rain = 0
KGO1 141544Z 17012KT M06/M09 A3033 RMK A01 T10631094  RH  079%=      5-min Rain = 0
KGO1 141545Z 16012KT M06/M09 A3033 RMK A01 T10631094  RH  079%=      5-min Rain = 0
KGO1 141546Z 16012KT M06/M09 A3033 RMK A01 T10621091  RH  080%=      5-min Rain = 0
KGO1 141547Z 16012KT M06/M09 A3033 RMK A01 T10611090  RH  080%=      5-min Rain = 0
KGO1 141548Z 17013KT M06/M09 A3033 RMK A01 T10611092  RH  078%=      5-min Rain = 0
KGO1 141549Z 16013KT M06/M09 A3033 RMK A01 T10621093  RH  078%=      5-min Rain = 0
KGO1 141550Z 17013KT M06/M09 A3033 RMK A01 T10621092  RH  079%=      5-min Rain = 0
KGO1 141551Z 17012KT M06/M09 A3033 RMK A01 T10621093  RH  079%=      5-min Rain = 0
KGO1 141552Z 17013KT M06/M09 A3033 RMK A01 T10621093  RH  079%=      5-min Rain = 0
KGO1 141553Z 17011KT M06/M09 A3033 RMK A01 T10631093  RH  079%=      5-min Rain = 0
KGO1 141554Z 16012KT M06/M09 A3033 RMK A01 T10631093  RH  079%=      5-min Rain = 0
KGO1 141555Z 16013KT M06/M09 A3033 RMK A01 T10621093  RH  079%=      5-min Rain = 0
KGO1 141556Z 17012KT M06/M09 A3033 RMK A01 T10621093  RH  079%=      5-min Rain = 0
KGO1 141557Z 17011KT M06/M09 A3033 RMK A01 T10621094  RH  078%=      5-min Rain = 0
KGO1 141558Z 17011KT M06/M09 A3033 RMK A01 T10621093  RH  078%=      5-min Rain = 0
KGO1 141559Z 17011KT M06/M09 A3033 RMK A01 T10621093  RH  078%=      5-min Rain = 0
KGO1 141600Z 17011KT M06/M09 A3033 RMK A01 T10611092  RH  079%=      5-min Rain = 0
KGO1 141601Z 18012KT M06/M09 A3033 RMK A01 T10601090  RH  079%=      5-min Rain = 0
KGO1 141602Z 17011KT M06/M09 A3033 RMK A01 T10601089  RH  080%=      5-min Rain = 0
KGO1 141603Z 16011KT M06/M09 A3033 RMK A01 T10591088  RH  080%=      5-min Rain = 0
KGO1 141604Z 17011KT M06/M09 A3033 RMK A01 T10581088  RH  080%=      5-min Rain = 0
KGO1 141605Z 17012KT M06/M09 A3033 RMK A01 T10581089  RH  079%=      5-min Rain = 0
KGO1 141606Z 17010KT M06/M09 A3033 RMK A01 T10591091  RH  078%=      5-min Rain = 0
KGO1 141607Z 17010KT M06/M09 A3033 RMK A01 T10591091  RH  078%=      5-min Rain = 0
KGO1 141608Z 17011KT M06/M09 A3033 RMK A01 T10591089  RH  079%=      5-min Rain = 0
KGO1 141609Z 16011KT M06/M09 A3033 RMK A01 T10591090  RH  079%=      5-min Rain = 0
KGO1 141610Z 17011KT M06/M09 A3033 RMK A01 T10581090  RH  079%=      5-min Rain = 0
KGO1 141611Z 17011KT M06/M09 A3032 RMK A01 T10581089  RH  079%=      5-min Rain = 0
KGO1 141612Z 17010KT M06/M09 A3032 RMK A01 T10571087  RH  079%=      5-min Rain = 0
KGO1 141613Z 16010KT M06/M09 A3032 RMK A01 T10551085  RH  080%=      5-min Rain = 0
KGO1 141614Z 16012KT M05/M09 A3032 RMK A01 T10541086  RH  078%=      5-min Rain = 0
KGO1 141615Z 16012KT M06/M09 A3032 RMK A01 T10561090  RH  077%=      5-min Rain = 0
KGO1 141616Z 16012KT M06/M09 A3032 RMK A01 T10561089  RH  078%=      5-min Rain = 0
KGO1 141617Z 16012KT M06/M09 A3032 RMK A01 T10561088  RH  078%=      5-min Rain = 0
KGO1 141618Z 17011KT M06/M09 A3032 RMK A01 T10561088  RH  078%=      5-min Rain = 0
KGO1 141619Z 17012KT M06/M09 A3032 RMK A01 T10551086  RH  079%=      5-min Rain = 0
KGO1 141620Z 17011KT M05/M09 A3032 RMK A01 T10541086  RH  078%=      5-min Rain = 0
KGO1 141621Z 16011KT M05/M09 A3032 RMK A01 T10541087  RH  078%=      5-min Rain = 0
KGO1 141622Z 16012KT M05/M09 A3032 RMK A01 T10541088  RH  077%=      5-min Rain = 0
KGO1 141623Z 17011KT M05/M09 A3032 RMK A01 T10541088  RH  077%=      5-min Rain = 0
KGO1 141624Z 15011KT M05/M09 A3032 RMK A01 T10541089  RH  077%=      5-min Rain = 0
KGO1 141625Z 16009KT M05/M09 A3032 RMK A01 T10541089  RH  077%=      5-min Rain = 0
KGO1 141626Z 16012KT M05/M09 A3032 RMK A01 T10521085  RH  078%=      5-min Rain = 0
KGO1 141627Z 16010KT M05/M09 A3032 RMK A01 T10521087  RH  076%=      5-min Rain = 0
KGO1 141628Z 16011KT M05/M09 A3032 RMK A01 T10511086  RH  077%=      5-min Rain = 0
KGO1 141629Z 15012KT M05/M09 A3032 RMK A01 T10511087  RH  076%=      5-min Rain = 0
KGO1 141630Z 17013KT M05/M09 A3032 RMK A01 T10511086  RH  076%=      5-min Rain = 0
KGO1 141631Z 17012KT M05/M09 A3032 RMK A01 T10501086  RH  076%=      5-min Rain = 0
KGO1 141632Z 17010KT M05/M09 A3032 RMK A01 T10501087  RH  076%=      5-min Rain = 0
KGO1 141633Z 17009KT M05/M09 A3032 RMK A01 T10501085  RH  076%=      5-min Rain = 0
KGO1 141634Z 16011KT M05/M09 A3032 RMK A01 T10481085  RH  076%=      5-min Rain = 0
KGO1 141635Z 16012KT M05/M09 A3032 RMK A01 T10491087  RH  075%=      5-min Rain = 0
KGO1 141636Z 17013KT M05/M09 A3032 RMK A01 T10491087  RH  075%=      5-min Rain = 0
KGO1 141637Z 18012KT M05/M09 A3032 RMK A01 T10491086  RH  075%=      5-min Rain = 0
KGO1 141638Z 17011KT M05/M09 A3032 RMK A01 T10491088  RH  074%=      5-min Rain = 0
KGO1 141639Z 17012KT M05/M09 A3031 RMK A01 T10481085  RH  075%=      5-min Rain = 0
KGO1 141640Z 18013KT M05/M08 A3031 RMK A01 T10471084  RH  075%=      5-min Rain = 0
KGO1 141641Z 17012KT M05/M09 A3031 RMK A01 T10471087  RH  074%=      5-min Rain = 0
KGO1 141642Z 16012KT M05/M09 A3031 RMK A01 T10481088  RH  074%=      5-min Rain = 0
KGO1 141643Z 16013KT M05/M09 A3031 RMK A01 T10481086  RH  075%=      5-min Rain = 0
KGO1 141644Z 17012KT M05/M09 A3031 RMK A01 T10471086  RH  074%=      5-min Rain = 0
KGO1 141645Z 16011KT M05/M09 A3031 RMK A01 T10471086  RH  075%=      5-min Rain = 0
KGO1 141646Z 16011KT M05/M08 A3031 RMK A01 T10461084  RH  075%=      5-min Rain = 0
KGO1 141647Z 16013KT M05/M08 A3031 RMK A01 T10451084  RH  074%=      5-min Rain = 0
KGO1 141648Z 17013KT M05/M09 A3031 RMK A01 T10461087  RH  073%=      5-min Rain = 0
KGO1 141649Z 16014KT M05/M09 A3031 RMK A01 T10471087  RH  074%=      5-min Rain = 0
KGO1 141650Z 16012KT M05/M09 A3031 RMK A01 T10471085  RH  074%=      5-min Rain = 0
KGO1 141651Z 17012KT M05/M09 A3031 RMK A01 T10461086  RH  074%=      5-min Rain = 0
KGO1 141652Z 17015KT M05/M08 A3031 RMK A01 T10451083  RH  075%=      5-min Rain = 0
KGO1 141653Z 17012KT M05/M08 A3031 RMK A01 T10451084  RH  074%=      5-min Rain = 0
KGO1 141654Z 17013KT M04/M08 A3031 RMK A01 T10441082  RH  074%=      5-min Rain = 0
KGO1 141655Z 18012KT M04/M08 A3031 RMK A01 T10431082  RH  074%=      5-min Rain = 0
KGO1 141656Z 16012KT M04/M08 A3031 RMK A01 T10421081  RH  075%=      5-min Rain = 0
KGO1 141657Z 16013KT M04/M08 A3031 RMK A01 T10411081  RH  074%=      5-min Rain = 0
KGO1 141658Z 16013KT M04/M08 A303 RMK A01 T10421084  RH  073%=      5-min Rain = 0
KGO1 141659Z 16014KT M04/M08 A303 RMK A01 T10431084  RH  073%=      5-min Rain = 0
KGO1 141700Z 17011KT M04/M08 A303 RMK A01 T10421081  RH  074%=      5-min Rain = 0
KGO1 141701Z 17012KT M04/M08 A303 RMK A01 T10401079  RH  074%=      5-min Rain = 0
KGO1 141702Z 17013KT M04/M08 A303 RMK A01 T10401081  RH  073%=      5-min Rain = 0
KGO1 141703Z 17011KT M04/M08 A303 RMK A01 T10411081  RH  073%=      5-min Rain = 0
KGO1 141704Z 17012KT M04/M08 A303 RMK A01 T10381077  RH  075%=      5-min Rain = 0
KGO1 141705Z 17013KT M04/M08 A303 RMK A01 T10371076  RH  074%=      5-min Rain = 0
KGO1 141706Z 17012KT M04/M08 A303 RMK A01 T10371078  RH  073%=      5-min Rain = 0
KGO1 141707Z 16013KT M04/M08 A303 RMK A01 T10361076  RH  074%=      5-min Rain = 0
KGO1 141708Z 16014KT M04/M08 A303 RMK A01 T10351077  RH  073%=      5-min Rain = 0
KGO1 141709Z 16012KT M04/M08 A303 RMK A01 T10361080  RH  072%=      5-min Rain = 0
KGO1 141710Z 17012KT M04/M08 A303 RMK A01 T10371079  RH  073%=      5-min Rain = 0
KGO1 141711Z 17013KT M04/M08 A303 RMK A01 T10371079  RH  073%=      5-min Rain = 0
KGO1 141712Z 17012KT M04/M08 A303 RMK A01 T10381079  RH  073%=      5-min Rain = 0
KGO1 141713Z 17014KT M04/M08 A303 RMK A01 T10361076  RH  074%=      5-min Rain = 0
KGO1 141714Z 18014KT M04/M08 A303 RMK A01 T10361077  RH  073%=      5-min Rain = 0
KGO1 141715Z 17011KT M04/M08 A303 RMK A01 T10371078  RH  073%=      5-min Rain = 0
KGO1 141716Z 17010G15KT M04/M08 A303 RMK A01 T10371076  RH  075%=      5-min Rain = 0
KGO1 141717Z 17012KT M04/M08 A303 RMK A01 T10351075  RH  074%=      5-min Rain = 0
KGO1 141718Z 17014KT M04/M08 A303 RMK A01 T10361077  RH  073%=      5-min Rain = 0
KGO1 141719Z 18011KT M04/M08 A303 RMK A01 T10371079  RH  072%=      5-min Rain = 0
KGO1 141720Z 16012KT M04/M08 A303 RMK A01 T10371077  RH  074%=      5-min Rain = 0
KGO1 141721Z 16013KT M04/M08 A303 RMK A01 T10361077  RH  073%=      5-min Rain = 0
KGO1 141722Z 18010KT M04/M08 A303 RMK A01 T10351075  RH  074%=      5-min Rain = 0
KGO1 141723Z 17011KT M03/M07 A303 RMK A01 T10341074  RH  074%=      5-min Rain = 0
KGO1 141724Z 17014KT M03/M08 A303 RMK A01 T10341076  RH  073%=      5-min Rain = 0
KGO1 141725Z 17012KT M04/M08 A303 RMK A01 T10361078  RH  073%=      5-min Rain = 0
KGO1 141726Z 18013KT M04/M08 A303 RMK A01 T10371077  RH  074%=      5-min Rain = 0
KGO1 141727Z 17013KT M04/M08 A3029 RMK A01 T10361075  RH  074%=      5-min Rain = 0
KGO1 141728Z 17013KT M04/M08 A3029 RMK A01 T10361077  RH  073%=      5-min Rain = 0
KGO1 141729Z 17010KT M04/M08 A3029 RMK A01 T10361076  RH  074%=      5-min Rain = 0
KGO1 141730Z 18010KT M03/M07 A3029 RMK A01 T10341072  RH  075%=      5-min Rain = 0
KGO1 141731Z 16010KT M03/M07 A3029 RMK A01 T10321073  RH  073%=      5-min Rain = 0
KGO1 141732Z 16012KT M03/M07 A3029 RMK A01 T10311072  RH  074%=      5-min Rain = 0
KGO1 141733Z 16012KT M03/M07 A3029 RMK A01 T10301073  RH  072%=      5-min Rain = 0
KGO1 141734Z 17009KT M03/M07 A3029 RMK A01 T10301072  RH  073%=      5-min Rain = 0
KGO1 141735Z 17009KT M03/M07 A3029 RMK A01 T10261065  RH  075%=      5-min Rain = 0
KGO1 141736Z 17010KT M02/M06 A3029 RMK A01 T10221063  RH  073%=      5-min Rain = 0
KGO1 141737Z 17010KT M02/M07 A3029 RMK A01 T10221066  RH  072%=      5-min Rain = 0
KGO1 141738Z 18012KT M02/M07 A3029 RMK A01 T10231069  RH  071%=      5-min Rain = 0
KGO1 141739Z 17010KT M03/M07 A3029 RMK A01 T10251070  RH  071%=      5-min Rain = 0
KGO1 141740Z 17010KT M03/M07 A3029 RMK A01 T10261070  RH  071%=      5-min Rain = 0
KGO1 141741Z 17010KT M03/M07 A3029 RMK A01 T10271071  RH  072%=      5-min Rain = 0
KGO1 141742Z 16011KT M03/M07 A3029 RMK A01 T10281070  RH  073%=      5-min Rain = 0
KGO1 141743Z 17013KT M03/M07 A3029 RMK A01 T10281070  RH  072%=      5-min Rain = 0
KGO1 141744Z 17011KT M03/M07 A3029 RMK A01 T10281070  RH  073%=      5-min Rain = 0
KGO1 141745Z 17010KT M03/M07 A3029 RMK A01 T10271069  RH  073%=      5-min Rain = 0
KGO1 141746Z 16010KT M03/M07 A3029 RMK A01 T10271068  RH  074%=      5-min Rain = 0
KGO1 141747Z 17011KT M03/M07 A3028 RMK A01 T10261069  RH  073%=      5-min Rain = 0
KGO1 141748Z 17011KT M03/M07 A3028 RMK A01 T10271068  RH  073%=      5-min Rain = 0
KGO1 141749Z 17012KT M03/M07 A3028 RMK A01 T10271069  RH  073%=      5-min Rain = 0
KGO1 141750Z 17012KT M03/M07 A3028 RMK A01 T10271069  RH  073%=      5-min Rain = 0
KGO1 141751Z 18012KT M03/M07 A3028 RMK A01 T10261068  RH  073%=      5-min Rain = 0
KGO1 141752Z 18011KT M03/M07 A3028 RMK A01 T10271070  RH  072%=      5-min Rain = 0
KGO1 141753Z 17013KT M03/M07 A3028 RMK A01 T10281068  RH  074%=      5-min Rain = 0
KGO1 141754Z 16014KT M03/M07 A3028 RMK A01 T10271068  RH  073%=      5-min Rain = 0
KGO1 141755Z 17013KT M03/M07 A3028 RMK A01 T10281069  RH  073%=      5-min Rain = 0
KGO1 141756Z 17011KT M03/M07 A3028 RMK A01 T10281068  RH  073%=      5-min Rain = 0
KGO1 141757Z 17011KT M03/M07 A3028 RMK A01 T10271065  RH  075%=      5-min Rain = 0
KGO1 141758Z 16010KT M02/M06 A3028 RMK A01 T10241064  RH  074%=      5-min Rain = 0
KGO1 141759Z 17010KT M03/M07 A3028 RMK A01 T10251065  RH  074%=      5-min Rain = 0
KGO1 141800Z 17010KT M02/M06 A3028 RMK A01 T10231062  RH  074%=      5-min Rain = 0
KGO1 141801Z 17010KT M02/M06 A3028 RMK A01 T10211063  RH  073%=      5-min Rain = 0
KGO1 141802Z 18009KT M02/M07 A3028 RMK A01 T10221065  RH  072%=      5-min Rain = 0
KGO1 141803Z 17011KT M02/M06 A3028 RMK A01 T10221064  RH  073%=      5-min Rain = 0
KGO1 141804Z 17011KT M02/M06 A3028 RMK A01 T10221062  RH  074%=      5-min Rain = 0
KGO1 141805Z 17013KT M02/M06 A3028 RMK A01 T10201060  RH  074%=      5-min Rain = 0
KGO1 141806Z 18013KT M02/M06 A3028 RMK A01 T10201062  RH  073%=      5-min Rain = 0
KGO1 141807Z 17012KT M02/M06 A3028 RMK A01 T10211063  RH  073%=      5-min Rain = 0
KGO1 141808Z 16012KT M02/M06 A3027 RMK A01 T10211062  RH  073%=      5-min Rain = 0
KGO1 141809Z 16011KT M02/M06 A3027 RMK A01 T10221064  RH  073%=      5-min Rain = 0
KGO1 141810Z 17012KT M02/M06 A3027 RMK A01 T10221062  RH  074%=      5-min Rain = 0
KGO1 141811Z 16011KT M02/M06 A3027 RMK A01 T10221063  RH  073%=      5-min Rain = 0
KGO1 141812Z 16012KT M02/M06 A3027 RMK A01 T10211062  RH  074%=      5-min Rain = 0
KGO1 141813Z 17013KT M02/M06 A3027 RMK A01 T10211062  RH  074%=      5-min Rain = 0
KGO1 141814Z 16013KT M02/M06 A3027 RMK A01 T10211061  RH  074%=      5-min Rain = 0
KGO1 141815Z 17011KT M02/M06 A3027 RMK A01 T10221064  RH  073%=      5-min Rain = 0
KGO1 141816Z 17012KT M02/M06 A3027 RMK A01 T10231064  RH  074%=      5-min Rain = 0
KGO1 141817Z 16012KT M02/M06 A3027 RMK A01 T10231064  RH  074%=      5-min Rain = 0
KGO1 141818Z 16011KT M02/M06 A3027 RMK A01 T10231062  RH  074%=      5-min Rain = 0
KGO1 141819Z 17012KT M02/M06 A3027 RMK A01 T10221062  RH  074%=      5-min Rain = 0
KGO1 141820Z 18011KT M02/M06 A3027 RMK A01 T10211062  RH  074%=      5-min Rain = 0
KGO1 141821Z 17014KT M02/M06 A3027 RMK A01 T10201059  RH  075%=      5-min Rain = 0
KGO1 141822Z 18011KT M02/M06 A3027 RMK A01 T10201060  RH  074%=      5-min Rain = 0
KGO1 141823Z 17012KT M02/M06 A3027 RMK A01 T10201059  RH  075%=      5-min Rain = 0
KGO1 141824Z 18013KT M02/M06 A3027 RMK A01 T10201058  RH  075%=      5-min Rain = 0
KGO1 141825Z 17011KT M02/M06 A3027 RMK A01 T10191057  RH  075%=      5-min Rain = 0
KGO1 141826Z 17013KT M02/M06 A3027 RMK A01 T10181058  RH  074%=      5-min Rain = 0
KGO1 141827Z 17013KT M02/M06 A3026 RMK A01 T10181057  RH  075%=      5-min Rain = 0
KGO1 141828Z 17012KT M02/M06 A3026 RMK A01 T10181059  RH  074%=      5-min Rain = 0
KGO1 141829Z 17014KT M02/M06 A3026 RMK A01 T10181058  RH  075%=      5-min Rain = 0
KGO1 141830Z 17013KT M02/M06 A3026 RMK A01 T10181057  RH  075%=      5-min Rain = 0
KGO1 141831Z 17014KT M02/M06 A3026 RMK A01 T10171055  RH  075%=      5-min Rain = 0
KGO1 141832Z 17013KT M02/M06 A3026 RMK A01 T10171055  RH  075%=      5-min Rain = 0
KGO1 141833Z 17014KT M02/M05 A3026 RMK A01 T10161054  RH  075%=      5-min Rain = 0
KGO1 141834Z 17013KT M02/M05 A3026 RMK A01 T10161054  RH  075%=      5-min Rain = 0
KGO1 141835Z 18013KT M02/M05 A3026 RMK A01 T10161054  RH  075%=      5-min Rain = 0
KGO1 141836Z 17012KT M02/M05 A3026 RMK A01 T10161054  RH  075%=      5-min Rain = 0
KGO1 141837Z 17011KT M02/M05 A3026 RMK A01 T10151051  RH  076%=      5-min Rain = 0
KGO1 141838Z 17011KT M01/M05 A3026 RMK A01 T10141053  RH  075%=      5-min Rain = 0
KGO1 141839Z 16012KT M01/M05 A3026 RMK A01 T10141053  RH  075%=      5-min Rain = 0
KGO1 141840Z 16012KT M01/M06 A3026 RMK A01 T10141055  RH  073%=      5-min Rain = 0
KGO1 141841Z 17012KT M02/M06 A3026 RMK A01 T10151056  RH  074%=      5-min Rain = 0
KGO1 141842Z 17011KT M02/M06 A3025 RMK A01 T10151056  RH  074%=      5-min Rain = 0
KGO1 141843Z 16012KT M02/M06 A3025 RMK A01 T10161057  RH  074%=      5-min Rain = 0
KGO1 141844Z 16011KT M02/M06 A3025 RMK A01 T10161057  RH  074%=      5-min Rain = 0
KGO1 141845Z 17012KT M02/M06 A3025 RMK A01 T10161056  RH  074%=      5-min Rain = 0
KGO1 141846Z 17012KT M02/M06 A3025 RMK A01 T10161055  RH  074%=      5-min Rain = 0
KGO1 141847Z 18013KT M02/M05 A3025 RMK A01 T10151053  RH  075%=      5-min Rain = 0
KGO1 141848Z 17012KT M01/M05 A3025 RMK A01 T10141053  RH  075%=      5-min Rain = 0
KGO1 141849Z 17012KT M01/M05 A3025 RMK A01 T10121048  RH  077%=      5-min Rain = 0
KGO1 141850Z 18013KT M01/M04 A3025 RMK A01 T10091043  RH  077%=      5-min Rain = 0
KGO1 141851Z 18013KT M01/M05 A3024 RMK A01 T10081048  RH  075%=      5-min Rain = 0
KGO1 141852Z 17011KT M01/M05 A3024 RMK A01 T10101048  RH  075%=      5-min Rain = 0
KGO1 141853Z 17011KT M01/M05 A3024 RMK A01 T10081046  RH  075%=      5-min Rain = 0
KGO1 141854Z 17012KT M01/M05 A3024 RMK A01 T10091048  RH  075%=      5-min Rain = 0
KGO1 141855Z 17012KT M01/M05 A3024 RMK A01 T10091048  RH  075%=      5-min Rain = 0
KGO1 141856Z 17012KT M01/M05 A3024 RMK A01 T10091049  RH  074%=      5-min Rain = 0
KGO1 141857Z 17014KT M01/M05 A3024 RMK A01 T10101050  RH  074%=      5-min Rain = 0
KGO1 141858Z 17012KT M01/M05 A3024 RMK A01 T10111050  RH  075%=      5-min Rain = 0
KGO1 141859Z 17012KT M01/M05 A3024 RMK A01 T10121050  RH  075%=      5-min Rain = 0
KGO1 141900Z 17012KT M01/M05 A3024 RMK A01 T10121050  RH  075%=      5-min Rain = 0
KGO1 141901Z 18013KT M01/M05 A3024 RMK A01 T10111050  RH  075%=      5-min Rain = 0
KGO1 141902Z 17011KT M01/M05 A3024 RMK A01 T10111050  RH  075%=      5-min Rain = 0
KGO1 141903Z 16015KT M01/M05 A3024 RMK A01 T10101048  RH  075%=      5-min Rain = 0
KGO1 141904Z 16012KT M01/M05 A3024 RMK A01 T10101051  RH  074%=      5-min Rain = 0
KGO1 141905Z 16011KT M01/M05 A3023 RMK A01 T10101048  RH  075%=      5-min Rain = 0
KGO1 141906Z 16011KT M01/M04 A3023 RMK A01 T10071043  RH  076%=      5-min Rain = 0
KGO1 141907Z 16013KT M01/M05 A3023 RMK A01 T10051045  RH  074%=      5-min Rain = 0
KGO1 141908Z 16012KT M01/M05 A3023 RMK A01 T10061048  RH  074%=      5-min Rain = 0
KGO1 141909Z 17012KT M01/M05 A3023 RMK A01 T10071046  RH  075%=      5-min Rain = 0
KGO1 141910Z 16012KT M01/M05 A3023 RMK A01 T10071046  RH  075%=      5-min Rain = 0
KGO1 141911Z 16012KT M01/M05 A3023 RMK A01 T10071047  RH  075%=      5-min Rain = 0
KGO1 141912Z 16013KT M01/M05 A3023 RMK A01 T10071047  RH  075%=      5-min Rain = 0
KGO1 141913Z 16012KT M01/M05 A3023 RMK A01 T10071046  RH  075%=      5-min Rain = 0
KGO1 141914Z 17012KT M01/M05 A3023 RMK A01 T10071047  RH  075%=      5-min Rain = 0
KGO1 141915Z 17012KT M01/M04 A3023 RMK A01 T10061043  RH  076%=      5-min Rain = 0
KGO1 141916Z 17012KT M01/M04 A3023 RMK A01 T10051042  RH  076%=      5-min Rain = 0
KGO1 141917Z 17012KT M00/M04 A3023 RMK A01 T10041042  RH  076%=      5-min Rain = 0
KGO1 141918Z 17011KT M00/M04 A3023 RMK A01 T10031040  RH  076%=      5-min Rain = 0
KGO1 141919Z 17012KT M00/M04 A3022 RMK A01 T10021043  RH  074%=      5-min Rain = 0
KGO1 141920Z 17013KT M00/M04 A3022 RMK A01 T10041044  RH  074%=      5-min Rain = 0
KGO1 141921Z 17011KT M01/M04 A3022 RMK A01 T10051043  RH  075%=      5-min Rain = 0
KGO1 141922Z 18012KT M00/M04 A3022 RMK A01 T10041041  RH  076%=      5-min Rain = 0
KGO1 141923Z 18011KT M00/M04 A3022 RMK A01 T10041042  RH  076%=      5-min Rain = 0
KGO1 141924Z 17013KT M00/M04 A3022 RMK A01 T10041041  RH  076%=      5-min Rain = 0
KGO1 141925Z 17012KT M00/M04 A3022 RMK A01 T10041044  RH  074%=      5-min Rain = 0
KGO1 141926Z 17011KT M00/M04 A3022 RMK A01 T10041044  RH  074%=      5-min Rain = 0
KGO1 141927Z 18010KT M01/M04 A3022 RMK A01 T10051044  RH  075%=      5-min Rain = 0
KGO1 141928Z 17012KT M00/M04 A3022 RMK A01 T10031039  RH  077%=      5-min Rain = 0
KGO1 141929Z 16011KT M00/M04 A3022 RMK A01 T10011040  RH  075%=      5-min Rain = 0
KGO1 141930Z 18009KT M00/M04 A3022 RMK A01 T10021042  RH  074%=      5-min Rain = 0
KGO1 141931Z 17011KT 00/04 A3022 RMK A01 T00-00-37  RH  076%=      5-min Rain = 0
KGO1 141932Z 17011KT 00/M04 A3022 RMK A01 T00011038  RH  075%=      5-min Rain = 0
KGO1 141933Z 18011KT 00/04 A3022 RMK A01 T00-00-42  RH  073%=      5-min Rain = 0
KGO1 141934Z 17012KT M00/M04 A3022 RMK A01 T10011041  RH  075%=      5-min Rain = 0
KGO1 141935Z 18015KT 00/04 A3022 RMK A01 T00-00-36  RH  077%=      5-min Rain = 0
KGO1 141936Z 19013KT 00/M03 A3022 RMK A01 T00011033  RH  078%=      5-min Rain = 0
KGO1 141937Z 17011KT 00/04 A3022 RMK A01 T00000-35  RH  077%=      5-min Rain = 0
KGO1 141938Z 17009KT 00/04 A3022 RMK A01 T00000-40  RH  075%=      5-min Rain = 0
KGO1 141939Z 18015KT 00/04 A3022 RMK A01 T00-00-38  RH  076%=      5-min Rain = 0
KGO1 141940Z 18016KT 00/04 A3022 RMK A01 T00-00-36  RH  077%=      5-min Rain = 0
KGO1 141941Z 17015KT 00/M03 A3022 RMK A01 T00011034  RH  078%=      5-min Rain = 0
KGO1 141942Z 18014KT 00/M04 A3022 RMK A01 T00011035  RH  077%=      5-min Rain = 0
KGO1 141943Z 18016KT 00/03 A3022 RMK A01 T00000-31  RH  079%=      5-min Rain = 0
KGO1 141944Z 19016KT 00/M03 A3022 RMK A01 T00011030  RH  080%=      5-min Rain = 0
KGO1 141945Z 19015KT 00/03 A3022 RMK A01 T00-00-31  RH  080%=      5-min Rain = 0
KGO1 141946Z 18015KT 00/03 A3022 RMK A01 T00-00-31  RH  080%=      5-min Rain = 0
KGO1 141947Z 18016KT 00/03 A3022 RMK A01 T00-00-30  RH  080%=      5-min Rain = 0
KGO1 141948Z 18017KT 00/03 A3021 RMK A01 T00000-29  RH  081%=      5-min Rain = 0
KGO1 141949Z 18016KT 00/M03 A3021 RMK A01 T00021028  RH  080%=      5-min Rain = 0
KGO1 141950Z 18015KT 00/M03 A3021 RMK A01 T00021029  RH  080%=      5-min Rain = 0
KGO1 141951Z 18015KT 00/M03 A3021 RMK A01 T00031026  RH  081%=      5-min Rain = 0
KGO1 141952Z 19014KT 00/M03 A3021 RMK A01 T00041025  RH  081%=      5-min Rain = 0
KGO1 141953Z 18016KT 01/M03 A3021 RMK A01 T00051025  RH  081%=      5-min Rain = 0
KGO1 141954Z 19017KT 01/M03 A3021 RMK A01 T00051025  RH  080%=      5-min Rain = 0
KGO1 141955Z 19015KT 01/M03 A3021 RMK A01 T00051027  RH  080%=      5-min Rain = 0
KGO1 141956Z 18017KT 01/M03 A3021 RMK A01 T00051026  RH  080%=      5-min Rain = 0
KGO1 141957Z 18019KT 01/M03 A3021 RMK A01 T00051026  RH  080%=      5-min Rain = 0
KGO1 141958Z 18018KT 00/M03 A3021 RMK A01 T00041026  RH  080%=      5-min Rain = 0
KGO1 141959Z 18017KT 00/M03 A3021 RMK A01 T00041025  RH  081%=      5-min Rain = 0
KGO1 142000Z 18016KT 00/M03 A3021 RMK A01 T00031026  RH  081%=      5-min Rain = 0
KGO1 142001Z 18016KT 00/M03 A3021 RMK A01 T00021027  RH  081%=      5-min Rain = 0
KGO1 142002Z 18016KT 00/M03 A3021 RMK A01 T00021026  RH  081%=      5-min Rain = 0
KGO1 142003Z 18017KT 00/M03 A302 RMK A01 T00031025  RH  081%=      5-min Rain = 0
KGO1 142004Z 19016KT 00/M03 A302 RMK A01 T00041025  RH  081%=      5-min Rain = 0
KGO1 142005Z 18016KT 00/M03 A302 RMK A01 T00041026  RH  081%=      5-min Rain = 0
KGO1 142006Z 18014KT 00/M03 A302 RMK A01 T00031025  RH  081%=      5-min Rain = 0
KGO1 142007Z 19013KT 00/M02 A302 RMK A01 T00041024  RH  081%=      5-min Rain = 0
KGO1 142008Z 18014KT 01/M02 A302 RMK A01 T00071020  RH  082%=      5-min Rain = 0
KGO1 142009Z 19015KT 01/M02 A302 RMK A01 T00081021  RH  081%=      5-min Rain = 0
KGO1 142010Z 19015KT 01/M02 A302 RMK A01 T00061023  RH  081%=      5-min Rain = 0
KGO1 142011Z 19016KT 01/M02 A302 RMK A01 T00061023  RH  081%=      5-min Rain = 0
KGO1 142012Z 18014KT 01/M02 A302 RMK A01 T00061024  RH  081%=      5-min Rain = 0
KGO1 142013Z 19017KT 01/M02 A302 RMK A01 T00061023  RH  081%=      5-min Rain = 0
KGO1 142014Z 18018KT 01/M02 A302 RMK A01 T00061023  RH  081%=      5-min Rain = 0
KGO1 142015Z 19019KT 01/M02 A302 RMK A01 T00051023  RH  082%=      5-min Rain = 0
KGO1 142016Z 19019KT 01/M02 A302 RMK A01 T00051022  RH  082%=      5-min Rain = 0
KGO1 142017Z 19017KT 01/M02 A302 RMK A01 T00051022  RH  082%=      5-min Rain = 0
KGO1 142018Z 19014KT 01/M02 A3019 RMK A01 T00051021  RH  082%=      5-min Rain = 0
KGO1 142019Z 19015KT 01/M02 A3019 RMK A01 T00071019  RH  083%=      5-min Rain = 0
KGO1 142020Z 19016KT 01/M02 A3019 RMK A01 T00081019  RH  083%=      5-min Rain = 0
KGO1 142021Z 18012KT 01/M02 A3019 RMK A01 T00081018  RH  083%=      5-min Rain = 0
KGO1 142022Z 18014KT 01/M02 A3019 RMK A01 T00101015  RH  083%=      5-min Rain = 0
KGO1 142023Z 18016KT 01/M02 A3019 RMK A01 T00111018  RH  081%=      5-min Rain = 0
KGO1 142024Z 19019KT 01/M02 A3019 RMK A01 T00081020  RH  081%=      5-min Rain = 0
KGO1 142025Z 19017KT 01/M02 A3019 RMK A01 T00071021  RH  082%=      5-min Rain = 0
KGO1 142026Z 20015KT 01/M02 A3019 RMK A01 T00061020  RH  083%=      5-min Rain = 0
KGO1 142027Z 18014G19KT 01/M02 A3019 RMK A01 T00061019  RH  083%=      5-min Rain = 0
KGO1 142028Z 18017KT 01/M02 A3019 RMK A01 T00071019  RH  083%=      5-min Rain = 0
KGO1 142029Z 18016KT 01/M02 A3019 RMK A01 T00061020  RH  083%=      5-min Rain = 0
KGO1 142030Z 18017KT 01/M02 A3019 RMK A01 T00051021  RH  083%=      5-min Rain = 0
KGO1 142031Z 18017KT 00/M02 A3019 RMK A01 T00041020  RH  084%=      5-min Rain = 0
KGO1 142032Z 19015KT 00/M02 A3019 RMK A01 T00041020  RH  084%=      5-min Rain = 0
KGO1 142033Z 18018KT 00/M02 A3019 RMK A01 T00041019  RH  085%=      5-min Rain = 0
KGO1 142034Z 18017KT 01/M02 A3019 RMK A01 T00051018  RH  084%=      5-min Rain = 0
KGO1 142035Z 19015KT 01/M02 A3019 RMK A01 T00051019  RH  084%=      5-min Rain = 0
KGO1 142036Z 19018KT 01/M02 A3019 RMK A01 T00061017  RH  085%=      5-min Rain = 0
KGO1 142037Z 19018KT 01/M02 A3018 RMK A01 T00061018  RH  084%=      5-min Rain = 0
KGO1 142038Z 20016KT 01/M02 A3019 RMK A01 T00061019  RH  084%=      5-min Rain = 0
KGO1 142039Z 19015G20KT 01/M02 A3019 RMK A01 T00061018  RH  084%=      5-min Rain = 0
KGO1 142040Z 19017KT 01/M02 A3018 RMK A01 T00061018  RH  084%=      5-min Rain = 0
KGO1 142041Z 19018KT 01/M02 A3018 RMK A01 T00061018  RH  084%=      5-min Rain = 0
KGO1 142042Z 19018KT 01/M02 A3018 RMK A01 T00061019  RH  084%=      5-min Rain = 0
KGO1 142043Z 19019KT 01/M02 A3018 RMK A01 T00061018  RH  084%=      5-min Rain = 0
KGO1 142044Z 19017KT 01/M02 A3018 RMK A01 T00061018  RH  084%=      5-min Rain = 0
KGO1 142045Z 20017KT 01/M02 A3018 RMK A01 T00061018  RH  084%=      5-min Rain = 0
KGO1 142046Z 19016G22KT 01/M02 A3018 RMK A01 T00061019  RH  084%=      5-min Rain = 0
KGO1 142047Z 18019KT 01/M02 A3018 RMK A01 T00071017  RH  084%=      5-min Rain = 0
KGO1 142048Z 18019KT 01/M02 A3018 RMK A01 T00071018  RH  084%=      5-min Rain = 0
KGO1 142049Z 18019KT 01/M02 A3018 RMK A01 T00071018  RH  084%=      5-min Rain = 0
KGO1 142050Z 18017KT 01/M02 A3018 RMK A01 T00061018  RH  084%=      5-min Rain = 0
KGO1 142051Z 18016KT 01/M02 A3018 RMK A01 T00071017  RH  084%=      5-min Rain = 0
KGO1 142052Z 18016KT 01/M02 A3018 RMK A01 T00071017  RH  084%=      5-min Rain = 0
KGO1 142053Z 20017KT 01/M02 A3018 RMK A01 T00081016  RH  084%=      5-min Rain = 0
KGO1 142054Z 19016KT 01/M02 A3018 RMK A01 T00081017  RH  083%=      5-min Rain = 0
KGO1 142055Z 18018KT 01/M02 A3018 RMK A01 T00081016  RH  084%=      5-min Rain = 0
KGO1 142056Z 18018KT 01/M02 A3018 RMK A01 T00091016  RH  083%=      5-min Rain = 0
KGO1 142057Z 18018KT 01/M02 A3018 RMK A01 T00081017  RH  083%=      5-min Rain = 0
KGO1 142058Z 18019KT 01/M02 A3018 RMK A01 T00081017  RH  084%=      5-min Rain = 0
KGO1 142059Z 18017KT 01/M02 A3018 RMK A01 T00081017  RH  083%=      5-min Rain = 0
KGO1 142100Z 18017KT 01/M02 A3018 RMK A01 T00081016  RH  084%=      5-min Rain = 0
KGO1 142101Z 17018KT 01/M02 A3017 RMK A01 T00081016  RH  084%=      5-min Rain = 0
KGO1 142102Z 18016KT 01/M02 A3017 RMK A01 T00081016  RH  084%=      5-min Rain = 0
KGO1 142103Z 18015KT 01/M02 A3017 RMK A01 T00091016  RH  083%=      5-min Rain = 0
KGO1 142104Z 19016KT 01/M02 A3017 RMK A01 T00081017  RH  083%=      5-min Rain = 0
KGO1 142105Z 18013KT 01/M02 A3017 RMK A01 T00091015  RH  084%=      5-min Rain = 0
KGO1 142106Z 18014KT 01/M01 A3017 RMK A01 T00101014  RH  084%=      5-min Rain = 0
KGO1 142107Z 18015KT 01/M02 A3017 RMK A01 T00101015  RH  083%=      5-min Rain = 0
KGO1 142108Z 19014KT 01/M02 A3017 RMK A01 T00101015  RH  083%=      5-min Rain = 0
KGO1 142109Z 19014KT 01/M01 A3017 RMK A01 T00121012  RH  084%=      5-min Rain = 0
KGO1 142110Z 19015KT 01/M01 A3017 RMK A01 T00131012  RH  083%=      5-min Rain = 0
KGO1 142111Z 19015G21KT 01/M01 A3017 RMK A01 T00131013  RH  083%=      5-min Rain = 0
KGO1 142112Z 18019KT 01/M02 A3017 RMK A01 T00121015  RH  082%=      5-min Rain = 0
KGO1 142113Z 18018KT 01/M02 A3017 RMK A01 T00111015  RH  083%=      5-min Rain = 0
KGO1 142114Z 19017KT 01/M01 A3017 RMK A01 T00111014  RH  083%=      5-min Rain = 0
KGO1 142115Z 19016KT 01/M02 A3017 RMK A01 T00111015  RH  083%=      5-min Rain = 0
KGO1 142116Z 18016KT 01/M02 A3017 RMK A01 T00111015  RH  083%=      5-min Rain = 0
KGO1 142117Z 18017KT 01/M02 A3017 RMK A01 T00111015  RH  083%=      5-min Rain = 0
KGO1 142118Z 18017KT 01/M02 A3017 RMK A01 T00111015  RH  083%=      5-min Rain = 0
KGO1 142119Z 18015G20KT 01/M01 A3017 RMK A01 T00101014  RH  084%=      5-min Rain = 0
KGO1 142120Z 18017KT 01/M01 A3017 RMK A01 T00111014  RH  084%=      5-min Rain = 0
KGO1 142121Z 19015KT 01/M01 A3017 RMK A01 T00111014  RH  083%=      5-min Rain = 0
KGO1 142122Z 18016KT 01/M01 A3016 RMK A01 T00121012  RH  084%=      5-min Rain = 0
KGO1 142123Z 18016KT 01/M01 A3016 RMK A01 T00131013  RH  083%=      5-min Rain = 0
KGO1 142124Z 18016KT 01/M01 A3016 RMK A01 T00121014  RH  083%=      5-min Rain = 0
KGO1 142125Z 19014KT 01/M01 A3016 RMK A01 T00121013  RH  083%=      5-min Rain = 0
KGO1 142126Z 18015KT 01/M01 A3016 RMK A01 T00131012  RH  084%=      5-min Rain = 0
KGO1 142127Z 18015KT 01/M01 A3016 RMK A01 T00131012  RH  083%=      5-min Rain = 0
KGO1 142128Z 18015KT 01/M01 A3016 RMK A01 T00131013  RH  083%=      5-min Rain = 0
KGO1 142129Z 18017KT 01/M01 A3016 RMK A01 T00131014  RH  082%=      5-min Rain = 0
KGO1 142130Z 18017KT 01/M01 A3016 RMK A01 T00131014  RH  083%=      5-min Rain = 0
KGO1 142131Z 18017KT 01/M01 A3016 RMK A01 T00131013  RH  083%=      5-min Rain = 0
KGO1 142132Z 18017KT 01/M01 A3015 RMK A01 T00131014  RH  082%=      5-min Rain = 0
KGO1 142133Z 18016KT 01/M01 A3015 RMK A01 T00131013  RH  083%=      5-min Rain = 0
KGO1 142134Z 18017KT 01/M01 A3015 RMK A01 T00131013  RH  083%=      5-min Rain = 0
KGO1 142135Z 18017KT 01/M01 A3015 RMK A01 T00141013  RH  082%=      5-min Rain = 0
KGO1 142136Z 18016KT 01/M01 A3015 RMK A01 T00141014  RH  082%=      5-min Rain = 0
KGO1 142137Z 18015KT 01/M01 A3015 RMK A01 T00131014  RH  082%=      5-min Rain = 0
KGO1 142138Z 17013KT 01/M01 A3015 RMK A01 T00131013  RH  083%=      5-min Rain = 0
KGO1 142139Z 18012KT 02/M01 A3015 RMK A01 T00151010  RH  083%=      5-min Rain = 0
KGO1 142140Z 18015KT 02/M01 A3015 RMK A01 T00161010  RH  083%=      5-min Rain = 0
KGO1 142141Z 18015KT 02/M01 A3015 RMK A01 T00161012  RH  082%=      5-min Rain = 0
KGO1 142142Z 18019KT 02/M01 A3015 RMK A01 T00161012  RH  082%=      5-min Rain = 0
KGO1 142143Z 18016KT 02/M01 A3015 RMK A01 T00151013  RH  082%=      5-min Rain = 0
KGO1 142144Z 17015KT 02/M01 A3015 RMK A01 T00151012  RH  082%=      5-min Rain = 0
KGO1 142145Z 18017KT 02/M01 A3015 RMK A01 T00151013  RH  082%=      5-min Rain = 0
KGO1 142146Z 18015KT 02/M01 A3015 RMK A01 T00151012  RH  082%=      5-min Rain = 0
KGO1 142147Z 19013KT 02/M01 A3015 RMK A01 T00151012  RH  082%=      5-min Rain = 0
KGO1 142148Z 18014KT 02/M01 A3015 RMK A01 T00161011  RH  082%=      5-min Rain = 0
KGO1 142149Z 18016KT 02/M01 A3015 RMK A01 T00161012  RH  081%=      5-min Rain = 0
KGO1 142150Z 17016KT 02/M01 A3015 RMK A01 T00161013  RH  081%=      5-min Rain = 0
KGO1 142151Z 18015KT 02/M01 A3015 RMK A01 T00161012  RH  082%=      5-min Rain = 0
KGO1 142152Z 18016KT 02/M01 A3015 RMK A01 T00161012  RH  082%=      5-min Rain = 0
KGO1 142153Z 18018KT 02/M01 A3015 RMK A01 T00161012  RH  082%=      5-min Rain = 0
KGO1 142154Z 18015KT 02/M01 A3015 RMK A01 T00151013  RH  082%=      5-min Rain = 0
KGO1 142155Z 17016KT 02/M01 A3015 RMK A01 T00151012  RH  082%=      5-min Rain = 0
KGO1 142156Z 18015KT 02/M01 A3015 RMK A01 T00151012  RH  082%=      5-min Rain = 0
KGO1 142157Z 18015KT 02/M01 A3014 RMK A01 T00161011  RH  082%=      5-min Rain = 0
KGO1 142158Z 18018KT 02/M01 A3014 RMK A01 T00171010  RH  082%=      5-min Rain = 0
KGO1 142159Z 18015KT 02/M01 A3014 RMK A01 T00171012  RH  081%=      5-min Rain = 0
KGO1 142200Z 18016KT 02/M01 A3014 RMK A01 T00161011  RH  082%=      5-min Rain = 0
KGO1 142201Z 18018KT 02/M01 A3014 RMK A01 T00171012  RH  082%=      5-min Rain = 0
KGO1 142202Z 18019KT 02/M01 A3014 RMK A01 T00161013  RH  081%=      5-min Rain = 0
KGO1 142203Z 18020KT 02/M01 A3014 RMK A01 T00161013  RH  081%=      5-min Rain = 0
KGO1 142204Z 18018KT 02/M01 A3014 RMK A01 T00151013  RH  082%=      5-min Rain = 0
KGO1 142205Z 18017KT 02/M01 A3014 RMK A01 T00151013  RH  082%=      5-min Rain = 0
KGO1 142206Z 19017KT 01/M01 A3014 RMK A01 T00141014  RH  082%=      5-min Rain = 0
KGO1 142207Z 19013KT 01/M01 A3014 RMK A01 T00131013  RH  083%=      5-min Rain = 0
KGO1 142208Z 18013G19KT 01/M01 A3014 RMK A01 T00141011  RH  084%=      5-min Rain = 0
KGO1 142209Z 18018KT 02/M01 A3014 RMK A01 T00151011  RH  083%=      5-min Rain = 0
KGO1 142210Z 18015KT 02/M01 A3014 RMK A01 T00151012  RH  082%=      5-min Rain = 0
KGO1 142211Z 19017KT 02/M01 A3014 RMK A01 T00151012  RH  082%=      5-min Rain = 0
KGO1 142212Z 18015KT 02/M01 A3014 RMK A01 T00151013  RH  082%=      5-min Rain = 0
KGO1 142213Z 18016KT 02/M01 A3014 RMK A01 T00151012  RH  082%=      5-min Rain = 0
KGO1 142214Z 18015KT 02/M01 A3014 RMK A01 T00151012  RH  082%=      5-min Rain = 0
KGO1 142215Z 18015KT 02/M01 A3014 RMK A01 T00151012  RH  082%=      5-min Rain = 0
KGO1 142216Z 18014KT 02/M01 A3014 RMK A01 T00151012  RH  082%=      5-min Rain = 0
KGO1 142217Z 18014KT 02/M01 A3014 RMK A01 T00151012  RH  082%=      5-min Rain = 0
KGO1 142218Z 18014KT 02/M01 A3014 RMK A01 T00161012  RH  082%=      5-min Rain = 0
KGO1 142219Z 18016KT 02/M01 A3015 RMK A01 T00161011  RH  082%=      5-min Rain = 0
KGO1 142220Z 19015KT 02/M01 A3014 RMK A01 T00171011  RH  082%=      5-min Rain = 0
KGO1 142221Z 20014KT 02/M01 A3014 RMK A01 T00171012  RH  081%=      5-min Rain = 0
KGO1 142222Z 19014KT 02/M01 A3014 RMK A01 T00171011  RH  082%=      5-min Rain = 0
KGO1 142223Z 20014KT 02/M01 A3014 RMK A01 T00161012  RH  082%=      5-min Rain = 0
KGO1 142224Z 19013KT 02/M01 A3014 RMK A01 T00161012  RH  082%=      5-min Rain = 0
KGO1 142225Z 18014G19KT 02/M01 A3014 RMK A01 T00171011  RH  082%=      5-min Rain = 0
KGO1 142226Z 19014KT 02/M01 A3014 RMK A01 T00171010  RH  082%=      5-min Rain = 0
KGO1 142227Z 18015KT 02/M01 A3014 RMK A01 T00171010  RH  082%=      5-min Rain = 0
KGO1 142228Z 18015KT 02/M01 A3014 RMK A01 T00171011  RH  082%=      5-min Rain = 0
KGO1 142229Z 18018KT 02/M01 A3014 RMK A01 T00161012  RH  082%=      5-min Rain = 0
KGO1 142230Z 18017KT 02/M01 A3014 RMK A01 T00151012  RH  082%=      5-min Rain = 0
KGO1 142231Z 18016KT 01/M01 A3014 RMK A01 T00141012  RH  083%=      5-min Rain = 0
KGO1 142232Z 18016KT 01/M01 A3014 RMK A01 T00141011  RH  083%=      5-min Rain = 0
KGO1 142233Z 18018KT 02/M01 A3014 RMK A01 T00151011  RH  083%=      5-min Rain = 0
KGO1 142234Z 17017KT 02/M01 A3014 RMK A01 T00151012  RH  082%=      5-min Rain = 0
KGO1 142235Z 18016KT 02/M01 A3014 RMK A01 T00151012  RH  083%=      5-min Rain = 0
KGO1 142236Z 18013KT 02/M01 A3014 RMK A01 T00151012  RH  083%=      5-min Rain = 0
KGO1 142237Z 17013KT 02/M01 A3014 RMK A01 T00151011  RH  083%=      5-min Rain = 0
KGO1 142238Z 18013KT 02/M01 A3014 RMK A01 T00161010  RH  083%=      5-min Rain = 0
KGO1 142239Z 18014KT 02/M01 A3014 RMK A01 T00171009  RH  083%=      5-min Rain = 0
KGO1 142240Z 17015KT 02/M01 A3014 RMK A01 T00171010  RH  082%=      5-min Rain = 0
KGO1 142241Z 18014KT 02/M01 A3014 RMK A01 T00161011  RH  082%=      5-min Rain = 0
KGO1 142242Z 18014KT 02/M01 A3014 RMK A01 T00161011  RH  082%=      5-min Rain = 0
KGO1 142243Z 18015KT 02/M01 A3014 RMK A01 T00151011  RH  082%=      5-min Rain = 0
KGO1 142244Z 19012KT 01/M01 A3014 RMK A01 T00141011  RH  083%=      5-min Rain = 0
KGO1 142245Z 18018KT 01/M01 A3014 RMK A01 T00141011  RH  083%=      5-min Rain = 0
KGO1 142246Z 18014KT 01/M01 A3014 RMK A01 T00141012  RH  083%=      5-min Rain = 0
KGO1 142247Z 18017KT 01/M01 A3014 RMK A01 T00131011  RH  084%=      5-min Rain = 0
KGO1 142248Z 18016KT 01/M01 A3014 RMK A01 T00131012  RH  084%=      5-min Rain = 0
KGO1 142249Z 17013KT 01/M01 A3014 RMK A01 T00131011  RH  084%=      5-min Rain = 0
KGO1 142250Z 18016KT 01/M01 A3014 RMK A01 T00131010  RH  085%=      5-min Rain = 0
KGO1 142251Z 18016KT 01/M01 A3014 RMK A01 T00131011  RH  084%=      5-min Rain = 0
KGO1 142252Z 19015KT 01/M01 A3014 RMK A01 T00131011  RH  084%=      5-min Rain = 0
KGO1 142253Z 19013KT 01/M01 A3014 RMK A01 T00141010  RH  084%=      5-min Rain = 0
KGO1 142254Z 18018KT 01/M01 A3014 RMK A01 T00141010  RH  084%=      5-min Rain = 0
KGO1 142255Z 18017KT 01/M01 A3014 RMK A01 T00141011  RH  083%=      5-min Rain = 0
KGO1 142256Z 18017KT 01/M01 A3014 RMK A01 T00131012  RH  084%=      5-min Rain = 0
KGO1 142257Z 18018KT 01/M01 A3014 RMK A01 T00121012  RH  084%=      5-min Rain = 0
KGO1 142258Z 19017KT 01/M01 A3014 RMK A01 T00111012  RH  084%=      5-min Rain = 0
KGO1 142259Z 18016KT 01/M01 A3014 RMK A01 T00111012  RH  085%=      5-min Rain = 0
KGO1 142300Z 18019KT 01/M01 A3013 RMK A01 T00111011  RH  085%=      5-min Rain = 0
KGO1 142301Z 19017G22KT 01/M01 A3014 RMK A01 T00101012  RH  085%=      5-min Rain = 0
KGO1 142302Z 19018KT 01/M01 A3013 RMK A01 T00101012  RH  086%=      5-min Rain = 0
KGO1 142303Z 19016KT 01/M01 A3014 RMK A01 T00101011  RH  086%=      5-min Rain = 0
KGO1 142304Z 19017KT 01/M01 A3013 RMK A01 T00091012  RH  086%=      5-min Rain = 0
KGO1 142305Z 19016KT 01/M01 A3014 RMK A01 T00091012  RH  086%=      5-min Rain = 0
KGO1 142306Z 20016KT 01/M01 A3013 RMK A01 T00091011  RH  086%=      5-min Rain = 0
KGO1 142307Z 19014KT 01/M01 A3013 RMK A01 T00101010  RH  086%=      5-min Rain = 0
KGO1 142308Z 20016KT 01/M01 A3013 RMK A01 T00101010  RH  086%=      5-min Rain = 0
KGO1 142309Z 20019KT 01/M01 A3013 RMK A01 T00101010  RH  086%=      5-min Rain = 0
KGO1 142310Z 19018KT 01/M01 A3013 RMK A01 T00101011  RH  086%=      5-min Rain = 0
KGO1 142311Z 19018KT 01/M01 A3013 RMK A01 T00101011  RH  086%=      5-min Rain = 0
KGO1 142312Z 19016KT 01/M01 A3013 RMK A01 T00091011  RH  086%=      5-min Rain = 0
KGO1 142313Z 20018KT 01/M01 A3013 RMK A01 T00091011  RH  087%=      5-min Rain = 0
KGO1 142314Z 20016KT 01/M01 A3013 RMK A01 T00091010  RH  087%=      5-min Rain = 0
KGO1 142315Z 18015KT 01/M01 A3013 RMK A01 T00101010  RH  087%=      5-min Rain = 0
KGO1 142316Z 18017KT 01/M01 A3013 RMK A01 T00101010  RH  087%=      5-min Rain = 0
KGO1 142317Z 18017KT 01/M01 A3013 RMK A01 T00101010  RH  087%=      5-min Rain = 0
KGO1 142318Z 19017KT 01/M01 A3013 RMK A01 T00101010  RH  087%=      5-min Rain = 0
KGO1 142319Z 18019KT 01/M01 A3013 RMK A01 T00101010  RH  087%=      5-min Rain = 0
KGO1 142320Z 18018KT 01/M01 A3013 RMK A01 T00101010  RH  087%=      5-min Rain = 0
KGO1 142321Z 18016KT 01/M01 A3013 RMK A01 T00101010  RH  087%=      5-min Rain = 0
KGO1 142322Z 19018KT 01/M01 A3013 RMK A01 T00101009  RH  087%=      5-min Rain = 0
KGO1 142323Z 19016KT 01/M01 A3014 RMK A01 T00101009  RH  087%=      5-min Rain = 0
KGO1 142324Z 19016KT 01/M01 A3014 RMK A01 T00101009  RH  087%=      5-min Rain = 0
KGO1 142325Z 19016KT 01/M01 A3013 RMK A01 T00101009  RH  087%=      5-min Rain = 0
KGO1 142326Z 20015KT 01/M01 A3013 RMK A01 T00101009  RH  087%=      5-min Rain = 0
KGO1 142327Z 20015KT 01/M01 A3013 RMK A01 T00111009  RH  087%=      5-min Rain = 0
KGO1 142328Z 19014KT 01/M01 A3013 RMK A01 T00111008  RH  087%=      5-min Rain = 0
KGO1 142329Z 20016KT 01/M01 A3013 RMK A01 T00121008  RH  087%=      5-min Rain = 0
KGO1 142330Z 19016KT 01/M01 A3013 RMK A01 T00121008  RH  087%=      5-min Rain = 0
KGO1 142331Z 19014KT 01/M01 A3013 RMK A01 T00121008  RH  087%=      5-min Rain = 0
KGO1 142332Z 19012KT 01/M01 A3013 RMK A01 T00121008  RH  087%=      5-min Rain = 0
KGO1 142333Z 18015KT 01/M01 A3013 RMK A01 T00121007  RH  087%=      5-min Rain = 0
KGO1 142334Z 18016KT 01/M01 A3013 RMK A01 T00111008  RH  087%=      5-min Rain = 0
KGO1 142335Z 18018KT 01/M01 A3013 RMK A01 T00111008  RH  087%=      5-min Rain = 0
KGO1 142336Z 18018KT 01/M01 A3013 RMK A01 T00111009  RH  087%=      5-min Rain = 0
KGO1 142337Z 19019KT 01/M01 A3013 RMK A01 T00111009  RH  087%=      5-min Rain = 0
KGO1 142338Z 19016KT 01/M01 A3013 RMK A01 T00111009  RH  087%=      5-min Rain = 0
KGO1 142339Z 18015KT 01/M01 A3013 RMK A01 T00101008  RH  087%=      5-min Rain = 0
KGO1 142340Z 18018KT 01/M01 A3013 RMK A01 T00101008  RH  088%=      5-min Rain = 0
KGO1 142341Z 18017KT 01/M01 A3013 RMK A01 T00101009  RH  087%=      5-min Rain = 0
KGO1 142342Z 19018KT 01/M01 A3013 RMK A01 T00091009  RH  087%=      5-min Rain = 0
KGO1 142343Z 18017KT 01/M01 A3013 RMK A01 T00091009  RH  088%=      5-min Rain = 0
KGO1 142344Z 18018KT 01/M01 A3013 RMK A01 T00091009  RH  088%=      5-min Rain = 0
KGO1 142345Z 18017KT 01/M01 A3013 RMK A01 T00091009  RH  088%=      5-min Rain = 0
KGO1 142346Z 18018KT 01/M01 A3013 RMK A01 T00091008  RH  088%=      5-min Rain = 0
KGO1 142347Z 18017KT 01/M01 A3013 RMK A01 T00091009  RH  088%=      5-min Rain = 0
KGO1 142348Z 18016KT 01/M01 A3013 RMK A01 T00091009  RH  088%=      5-min Rain = 0
KGO1 142349Z 18019KT 01/M01 A3013 RMK A01 T00081009  RH  088%=      5-min Rain = 0
KGO1 142350Z 18018KT 01/M01 A3013 RMK A01 T00081009  RH  088%=      5-min Rain = 0
KGO1 142351Z 18018KT 01/M01 A3013 RMK A01 T00081009  RH  088%=      5-min Rain = 0
KGO1 142352Z 19018KT 01/M01 A3013 RMK A01 T00081009  RH  088%=      5-min Rain = 0
KGO1 142353Z 19017KT 01/M01 A3013 RMK A01 T00081009  RH  088%=      5-min Rain = 0
KGO1 142354Z 18015KT 01/M01 A3013 RMK A01 T00081009  RH  088%=      5-min Rain = 0
KGO1 142355Z 18016KT 01/M01 A3013 RMK A01 T00081009  RH  089%=      5-min Rain = 0
KGO1 142356Z 19017KT 01/M01 A3013 RMK A01 T00081008  RH  089%=      5-min Rain = 0
KGO1 142357Z 18016KT 01/M01 A3013 RMK A01 T00081008  RH  089%=      5-min Rain = 0
KGO1 142358Z 18016KT 01/M01 A3013 RMK A01 T00081008  RH  089%=      5-min Rain = 0
KGO1 142359Z 18016KT 01/M01 A3013 RMK A01 T00081008  RH  089%=      5-min Rain = 0
KGO1 150000Z 18016KT 01/M01 A3013 RMK A01 T00081008  RH  089%=      5-min Rain = 0
KGO1 150001Z 18016KT 01/M01 A3013 RMK A01 T00081008  RH  089%=      5-min Rain = 0
KGO1 150002Z 18015KT 01/M01 A3013 RMK A01 T00081007  RH  089%=      5-min Rain = 0
KGO1 150003Z 19016KT 01/M01 A3013 RMK A01 T00081007  RH  090%=      5-min Rain = 0
KGO1 150004Z 19015KT 01/M01 A3013 RMK A01 T00081008  RH  089%=      5-min Rain = 0
KGO1 150005Z 19015KT 01/M01 A3013 RMK A01 T00081007  RH  090%=      5-min Rain = 0
KGO1 150006Z 19016KT 01/M01 A3013 RMK A01 T00081007  RH  090%=      5-min Rain = 0
KGO1 150007Z 19016KT 01/M01 A3013 RMK A01 T00081007  RH  090%=      5-min Rain = 0
KGO1 150008Z 19014KT 01/M01 A3013 RMK A01 T00081007  RH  090%=      5-min Rain = 0
KGO1 150009Z 18012KT 01/M01 A3013 RMK A01 T00071008  RH  090%=      5-min Rain = 0
KGO1 150010Z 18012KT 01/M01 A3013 RMK A01 T00071007  RH  090%=      5-min Rain = 0
KGO1 150011Z 18016KT 01/M01 A3012 RMK A01 T00081007  RH  090%=      5-min Rain = 0
KGO1 150012Z 18015KT 01/M01 A3012 RMK A01 T00081007  RH  090%=      5-min Rain = 0
KGO1 150013Z 17014KT 01/M01 A3012 RMK A01 T00071008  RH  090%=      5-min Rain = 0
KGO1 150014Z 17016KT 01/M01 A3012 RMK A01 T00081006  RH  090%=      5-min Rain = 0
KGO1 150015Z 18017KT 01/M01 A3012 RMK A01 T00081006  RH  090%=      5-min Rain = 0
KGO1 150016Z 18017KT 01/M01 A3012 RMK A01 T00081006  RH  090%=      5-min Rain = 0
KGO1 150017Z 18014KT 01/M01 A3012 RMK A01 T00081006  RH  090%=      5-min Rain = 0
KGO1 150018Z 18013KT 01/M01 A3012 RMK A01 T00081006  RH  090%=      5-min Rain = 0
KGO1 150019Z 18013G19KT 01/M01 A3012 RMK A01 T00081006  RH  091%=      5-min Rain = 0
KGO1 150020Z 18017KT 01/M01 A3012 RMK A01 T00081005  RH  091%=      5-min Rain = 0
KGO1 150021Z 18016KT 01/M01 A3012 RMK A01 T00081006  RH  091%=      5-min Rain = 0
KGO1 150022Z 18014KT 01/M01 A3012 RMK A01 T00081006  RH  091%=      5-min Rain = 0
KGO1 150023Z 18013KT 01/M01 A3012 RMK A01 T00081006  RH  091%=      5-min Rain = 0
KGO1 150024Z 18012KT 01/M01 A3012 RMK A01 T00081005  RH  091%=      5-min Rain = 0
KGO1 150025Z 18012KT 01/M01 A3012 RMK A01 T00081005  RH  091%=      5-min Rain = 0
KGO1 150026Z 17011KT 01/M01 A3012 RMK A01 T00081006  RH  091%=      5-min Rain = 0
KGO1 150027Z 18012KT 01/M01 A3012 RMK A01 T00081005  RH  091%=      5-min Rain = 0
KGO1 150028Z 17014KT 01/M01 A3012 RMK A01 T00081005  RH  091%=      5-min Rain = 0
KGO1 150029Z 18015KT 01/M01 A3012 RMK A01 T00081005  RH  091%=      5-min Rain = 0
KGO1 150030Z 17016KT 01/M01 A3012 RMK A01 T00081005  RH  091%=      5-min Rain = 0
KGO1 150031Z 18017KT 01/M01 A3012 RMK A01 T00081005  RH  091%=      5-min Rain = 0
KGO1 150032Z 18017KT 01/M01 A3012 RMK A01 T00081005  RH  091%=      5-min Rain = 0
KGO1 150033Z 19015KT 01/M01 A3012 RMK A01 T00091005  RH  091%=      5-min Rain = 0
KGO1 150034Z 18016KT 01/M01 A3012 RMK A01 T00091005  RH  091%=      5-min Rain = 0
KGO1 150035Z 18014KT 01/M01 A3012 RMK A01 T00081005  RH  091%=      5-min Rain = 0
KGO1 150036Z 18015KT 01/M00 A3012 RMK A01 T00091004  RH  091%=      5-min Rain = 0
KGO1 150037Z 18014KT 01/M00 A3012 RMK A01 T00091004  RH  091%=      5-min Rain = 0
KGO1 150038Z 18012KT 01/M00 A3012 RMK A01 T00081004  RH  091%=      5-min Rain = 0
KGO1 150039Z 18014KT 01/M00 A3012 RMK A01 T00091004  RH  091%=      5-min Rain = 0
KGO1 150040Z 18013KT 01/M00 A3012 RMK A01 T00081004  RH  091%=      5-min Rain = 0
KGO1 150041Z 17012KT 01/M00 A3012 RMK A01 T00081004  RH  091%=      5-min Rain = 0
KGO1 150042Z 17013KT 01/M00 A3012 RMK A01 T00081004  RH  092%=      5-min Rain = 0
KGO1 150043Z 17013KT 01/M00 A3012 RMK A01 T00081004  RH  092%=      5-min Rain = 0
KGO1 150044Z 18015KT 01/M00 A3012 RMK A01 T00091003  RH  092%=      5-min Rain = 0
KGO1 150045Z 18015KT 01/M00 A3012 RMK A01 T00081004  RH  092%=      5-min Rain = 0
KGO1 150046Z 18015KT 01/M00 A3012 RMK A01 T00091003  RH  092%=      5-min Rain = 0
KGO1 150047Z 18015KT 01/M00 A3012 RMK A01 T00081003  RH  092%=      5-min Rain = 0
KGO1 150048Z 18014KT 01/M00 A3012 RMK A01 T00091003  RH  092%=      5-min Rain = 0
KGO1 150049Z 18016KT 01/M00 A3012 RMK A01 T00081003  RH  092%=      5-min Rain = 0
KGO1 150050Z 19016G21KT 01/M00 A3012 RMK A01 T00081003  RH  092%=      5-min Rain = 0
KGO1 150051Z 18015KT 01/M00 A3012 RMK A01 T00081003  RH  092%=      5-min Rain = 0
KGO1 150052Z 19014KT 01/M00 A3012 RMK A01 T00081003  RH  092%=      5-min Rain = 0
KGO1 150053Z 18013KT 01/M00 A3012 RMK A01 T00081003  RH  093%=      5-min Rain = 0
KGO1 150054Z 18014KT 01/M00 A3012 RMK A01 T00081003  RH  093%=      5-min Rain = 0
KGO1 150055Z 19015KT 01/M00 A3012 RMK A01 T00081002  RH  093%=      5-min Rain = 0
KGO1 150056Z 18016KT 01/M00 A3012 RMK A01 T00081002  RH  093%=      5-min Rain = 0
KGO1 150057Z 18016KT 01/M00 A3012 RMK A01 T00081002  RH  093%=      5-min Rain = 0
KGO1 150058Z 18015KT 01/M00 A3012 RMK A01 T00081002  RH  093%=      5-min Rain = 0
KGO1 150059Z 18018KT 01/M00 A3012 RMK A01 T00081002  RH  093%=      5-min Rain = 0
KGO1 150100Z 18016KT 01/M00 A3012 RMK A01 T00081002  RH  093%=      5-min Rain = 0
KGO1 150101Z 18018KT 01/M00 A3012 RMK A01 T00091002  RH  093%=      5-min Rain = 0
KGO1 150102Z 18017KT 01/M00 A3012 RMK A01 T00081002  RH  093%=      5-min Rain = 0
KGO1 150103Z 18015KT 01/M00 A3012 RMK A01 T00091002  RH  093%=      5-min Rain = 0
KGO1 150104Z 18014KT 01/M00 A3012 RMK A01 T00081001  RH  093%=      5-min Rain = 0
KGO1 150105Z 18017KT 01/M00 A3012 RMK A01 T00081001  RH  093%=      5-min Rain = 0
KGO1 150106Z 18018KT 01/M00 A3012 RMK A01 T00081001  RH  093%=      5-min Rain = 0
KGO1 150107Z 18015KT 01/M00 A3012 RMK A01 T00091001  RH  093%=      5-min Rain = 0
KGO1 150108Z 18018KT 01/M00 A3012 RMK A01 T00091001  RH  093%=      5-min Rain = 0
KGO1 150109Z 18015KT 01/M00 A3012 RMK A01 T00091001  RH  093%=      5-min Rain = 0
KGO1 150110Z 19017KT 01/M00 A3012 RMK A01 T00091001  RH  093%=      5-min Rain = 0
KGO1 150111Z 19017KT 01/M00 A3012 RMK A01 T00091001  RH  093%=      5-min Rain = 0
KGO1 150112Z 19016KT 01/M00 A3012 RMK A01 T00091001  RH  093%=      5-min Rain = 0
KGO1 150113Z 19013KT 01/M00 A3012 RMK A01 T00091001  RH  093%=      5-min Rain = 0
KGO1 150114Z 18014KT 01/M00 A3012 RMK A01 T00091001  RH  093%=      5-min Rain = 0
KGO1 150115Z 18012KT 01/M00 A3012 RMK A01 T00091001  RH  093%=      5-min Rain = 0
KGO1 150116Z 19013KT 01/00 A3012 RMK A01 T000900-0  RH  094%=      5-min Rain = 0
KGO1 150117Z 18015KT 01/00 A3012 RMK A01 T000900-0  RH  094%=      5-min Rain = 0
KGO1 150118Z 18016KT 01/00 A3012 RMK A01 T000900-0  RH  094%=      5-min Rain = 0
KGO1 150119Z 18016KT 01/00 A3012 RMK A01 T000900-0  RH  093%=      5-min Rain = 0
KGO1 150120Z 18016KT 01/M00 A3012 RMK A01 T00091001  RH  093%=      5-min Rain = 0
KGO1 150121Z 19018G23KT 01/M00 A3012 RMK A01 T00091001  RH  094%=      5-min Rain = 0
KGO1 150122Z 19015KT 01/00 A3012 RMK A01 T000900-0  RH  093%=      5-min Rain = 0
KGO1 150123Z 19016KT 01/00 A3012 RMK A01 T000900-0  RH  093%=      5-min Rain = 0
KGO1 150124Z 18016G23KT 01/M00 A3012 RMK A01 T00091001  RH  093%=      5-min Rain = 0
KGO1 150125Z 18017KT 01/00 A3012 RMK A01 T000900-0  RH  094%=      5-min Rain = 0
KGO1 150126Z 18018KT 01/M00 A3012 RMK A01 T00091001  RH  093%=      5-min Rain = 0
KGO1 150127Z 18018KT 01/M00 A3012 RMK A01 T00091001  RH  093%=      5-min Rain = 0
KGO1 150128Z 18016KT 01/00 A3012 RMK A01 T000900-0  RH  093%=      5-min Rain = 0
KGO1 150129Z 18016KT 01/00 A3012 RMK A01 T000900-0  RH  094%=      5-min Rain = 0
KGO1 150130Z 18016KT 01/00 A3012 RMK A01 T000900-0  RH  094%=      5-min Rain = 0
KGO1 150131Z 18016KT 01/00 A3012 RMK A01 T00090000  RH  094%=      5-min Rain = 0
KGO1 150132Z 18016KT 01/00 A3012 RMK A01 T00090000  RH  094%=      5-min Rain = 0
KGO1 150133Z 18017KT 01/00 A3012 RMK A01 T00090000  RH  094%=      5-min Rain = 0
KGO1 150134Z 18017KT 01/00 A3012 RMK A01 T00090000  RH  094%=      5-min Rain = 0
KGO1 150135Z 19018KT 01/00 A3012 RMK A01 T00090000  RH  094%=      5-min Rain = 0
KGO1 150136Z 18016KT 01/00 A3012 RMK A01 T00090000  RH  094%=      5-min Rain = 0
KGO1 150137Z 18016KT 01/00 A3012 RMK A01 T00090000  RH  094%=      5-min Rain = 0
KGO1 150138Z 18015KT 01/00 A3012 RMK A01 T00090000  RH  094%=      5-min Rain = 0
KGO1 150139Z 19017KT 01/00 A3012 RMK A01 T00090000  RH  094%=      5-min Rain = 0
KGO1 150140Z 18015G20KT 01/00 A3012 RMK A01 T00090000  RH  094%=      5-min Rain = 0
KGO1 150141Z 18021KT 01/00 A3012 RMK A01 T000800-0  RH  094%=      5-min Rain = 0
KGO1 150142Z 19019KT 01/00 A3012 RMK A01 T000800-0  RH  094%=      5-min Rain = 0
KGO1 150143Z 18017KT 01/M00 A3012 RMK A01 T00081001  RH  094%=      5-min Rain = 0
KGO1 150144Z 19016KT 01/M00 A3012 RMK A01 T00081001  RH  094%=      5-min Rain = 0
KGO1 150145Z 18015KT 01/00 A3012 RMK A01 T000800-0  RH  094%=      5-min Rain = 0
KGO1 150146Z 18016KT 01/00 A3012 RMK A01 T000800-0  RH  094%=      5-min Rain = 0
KGO1 150147Z 18016KT 01/00 A3012 RMK A01 T00090000  RH  094%=      5-min Rain = 0
KGO1 150148Z 18018G23KT 01/00 A3012 RMK A01 T00080000  RH  094%=      5-min Rain = 0
KGO1 150149Z 19020KT 01/00 A3012 RMK A01 T00090000  RH  094%=      5-min Rain = 0
KGO1 150150Z 19020KT 01/00 A3012 RMK A01 T000800-0  RH  094%=      5-min Rain = 0
KGO1 150151Z 19021KT 01/00 A3012 RMK A01 T000800-0  RH  094%=      5-min Rain = 0
KGO1 150152Z 19017G23KT 01/00 A3012 RMK A01 T000900-0  RH  094%=      5-min Rain = 0
KGO1 150153Z 19020KT 01/00 A3011 RMK A01 T000800-0  RH  094%=      5-min Rain = 0
KGO1 150154Z 19019KT 01/00 A3011 RMK A01 T000800-0  RH  094%=      5-min Rain = 0
KGO1 150155Z 19018KT 01/00 A3011 RMK A01 T000900-0  RH  094%=      5-min Rain = 0
KGO1 150156Z 19020KT 01/M00 A3011 RMK A01 T00081001  RH  094%=      5-min Rain = 0
KGO1 150157Z 19021KT 01/M00 A3011 RMK A01 T00081001  RH  094%=      5-min Rain = 0
KGO1 150158Z 19020KT 01/M00 A3011 RMK A01 T00081001  RH  094%=      5-min Rain = 0
KGO1 150159Z 19020KT 01/M00 A3011 RMK A01 T00071002  RH  094%=      5-min Rain = 0
KGO1 150200Z 19020KT 01/M00 A3011 RMK A01 T00071002  RH  094%=      5-min Rain = 0
KGO1 150201Z 19018KT 01/M00 A3011 RMK A01 T00061002  RH  094%=      5-min Rain = 0
KGO1 150202Z 19017KT 01/M00 A3011 RMK A01 T00061002  RH  095%=      5-min Rain = 0
KGO1 150203Z 19018KT 01/M00 A3011 RMK A01 T00051002  RH  095%=      5-min Rain = 0
KGO1 150204Z 19018KT 01/M00 A3011 RMK A01 T00051002  RH  095%=      5-min Rain = 0
KGO1 150205Z 19018KT 01/M00 A3011 RMK A01 T00051002  RH  095%=      5-min Rain = 0
KGO1 150206Z 19019KT 01/M00 A3011 RMK A01 T00051002  RH  095%=      5-min Rain = 0
KGO1 150207Z 19019KT 01/M00 A3011 RMK A01 T00051002  RH  096%=      5-min Rain = 0
KGO1 150208Z 19019KT 01/M00 A3011 RMK A01 T00051002  RH  096%=      5-min Rain = 0
KGO1 150209Z 19018KT 01/M00 A3011 RMK A01 T00051002  RH  096%=      5-min Rain = 0
KGO1 150210Z 19018KT 01/M00 A3011 RMK A01 T00051002  RH  096%=      5-min Rain = 0
KGO1 150211Z 19018KT 00/M00 A3011 RMK A01 T00041002  RH  096%=      5-min Rain = 0
KGO1 150212Z 19020KT 00/M00 A3011 RMK A01 T00041002  RH  096%=      5-min Rain = 0
KGO1 150213Z 19021KT 00/M00 A3011 RMK A01 T00041002  RH  096%=      5-min Rain = 0
KGO1 150214Z 19019KT 00/M00 A3011 RMK A01 T00041002  RH  096%=      5-min Rain = 0
KGO1 150215Z 19018KT 00/M00 A3011 RMK A01 T00041002  RH  096%=      5-min Rain = 0
KGO1 150216Z 18019KT 00/M00 A3011 RMK A01 T00041002  RH  096%=      5-min Rain = 0
KGO1 150217Z 19018KT 00/M00 A3011 RMK A01 T00041001  RH  097%=      5-min Rain = 0
KGO1 150218Z 19017KT 00/M00 A3011 RMK A01 T00041001  RH  097%=      5-min Rain = 0
KGO1 150219Z 18020KT 00/M00 A3011 RMK A01 T00031002  RH  097%=      5-min Rain = 0
KGO1 150220Z 18018KT 00/M00 A3011 RMK A01 T00031002  RH  097%=      5-min Rain = 0
KGO1 150221Z 18018KT 00/M00 A3011 RMK A01 T00031002  RH  097%=      5-min Rain = 0
KGO1 150222Z 18016KT 00/M00 A3011 RMK A01 T00031001  RH  097%=      5-min Rain = 0
KGO1 150223Z 18018KT 00/M00 A3012 RMK A01 T00021002  RH  097%=      5-min Rain = 0
KGO1 150224Z 18017KT 00/M00 A3012 RMK A01 T00021002  RH  097%=      5-min Rain = 0
KGO1 150225Z 18016KT 00/M00 A3012 RMK A01 T00021002  RH  097%=      5-min Rain = 0
KGO1 150226Z 18018KT 00/M00 A3012 RMK A01 T00021002  RH  098%=      5-min Rain = 0
KGO1 150227Z 18017KT 00/M00 A3012 RMK A01 T00021002  RH  098%=      5-min Rain = 0
KGO1 150228Z 18017KT 00/M00 A3012 RMK A01 T00021002  RH  098%=      5-min Rain = 0
KGO1 150229Z 18017KT 00/M00 A3012 RMK A01 T00021001  RH  098%=      5-min Rain = 0
KGO1 150230Z 18016KT 00/M00 A3012 RMK A01 T00021001  RH  098%=      5-min Rain = 0
KGO1 150231Z 18016KT 00/M00 A3012 RMK A01 T00011002  RH  098%=      5-min Rain = 0
KGO1 150232Z 18017KT 00/M00 A3012 RMK A01 T00011002  RH  098%=      5-min Rain = 0
KGO1 150233Z 18017KT 00/M00 A3012 RMK A01 T00011001  RH  098%=      5-min Rain = 0
KGO1 150234Z 18015KT 00/M00 A3012 RMK A01 T00011002  RH  098%=      5-min Rain = 0
KGO1 150235Z 18018KT 00/M00 A3012 RMK A01 T00011002  RH  098%=      5-min Rain = 0
KGO1 150236Z 18015KT 00/M00 A3012 RMK A01 T00011002  RH  098%=      5-min Rain = 0
KGO1 150237Z 18016KT 00/M00 A3012 RMK A01 T00011002  RH  098%=      5-min Rain = 0
KGO1 150238Z 18017KT 00/M00 A3012 RMK A01 T00011001  RH  099%=      5-min Rain = 0
KGO1 150239Z 18016KT 00/M00 A3012 RMK A01 T00011001  RH  099%=      5-min Rain = 0
KGO1 150240Z 18018KT 00/M00 A3011 RMK A01 T00011001  RH  099%=      5-min Rain = 0
KGO1 150241Z 17017KT 00/M00 A3011 RMK A01 T00011001  RH  099%=      5-min Rain = 0
KGO1 150242Z 18016KT 00/M00 A3011 RMK A01 T00011001  RH  099%=      5-min Rain = 0
KGO1 150243Z 17017KT 00/M00 A3011 RMK A01 T00011001  RH  099%=      5-min Rain = 0
KGO1 150244Z 18017KT 00/M00 A3011 RMK A01 T00011001  RH  099%=      5-min Rain = 0
KGO1 150245Z 17016KT 00/M00 A3011 RMK A01 T00011001  RH  099%=      5-min Rain = 0
KGO1 150246Z 18015KT 00/M00 A3011 RMK A01 T00011001  RH  099%=      5-min Rain = 0
KGO1 150247Z 18015KT 00/M00 A3012 RMK A01 T00011001  RH  099%=      5-min Rain = 0
KGO1 150248Z 18017KT 00/00 A3012 RMK A01 T000000-1  RH  099%=      5-min Rain = 0
KGO1 150249Z 18016KT 00/00 A3012 RMK A01 T000000-1  RH  099%=      5-min Rain = 0
KGO1 150250Z 18017KT 00/00 A3012 RMK A01 T000000-1  RH  099%=      5-min Rain = 0
KGO1 150251Z 18015KT 00/M00 A3012 RMK A01 T00011001  RH  099%=      5-min Rain = 0
KGO1 150252Z 18015KT 00/M00 A3012 RMK A01 T00011001  RH  099%=      5-min Rain = 0
KGO1 150253Z 18016KT 00/M00 A3012 RMK A01 T00011001  RH  099%=      5-min Rain = 0
KGO1 150254Z 18014KT 00/M00 A3012 RMK A01 T00011001  RH  099%=      5-min Rain = 0
KGO1 150255Z 18017KT 00/M00 A3012 RMK A01 T00011001  RH  099%=      5-min Rain = 0
KGO1 150256Z 18017KT 00/00 A3012 RMK A01 T000100-0  RH  099%=      5-min Rain = 0
KGO1 150257Z 18017KT 00/00 A3012 RMK A01 T000100-0  RH  099%=      5-min Rain = 0
KGO1 150258Z 18016KT 00/00 A3012 RMK A01 T000100-0  RH  099%=      5-min Rain = 0
KGO1 150259Z 18016KT 00/00 A3012 RMK A01 T000100-0  RH  099%=      5-min Rain = 0
KGO1 150300Z 18016KT 00/00 A3011 RMK A01 T000100-0  RH  099%=      5-min Rain = 0
KGO1 150301Z 18016KT 00/00 A3011 RMK A01 T00020000  RH  099%=      5-min Rain = 0
KGO1 150302Z 19016G21KT 00/00 A3012 RMK A01 T000200-0  RH  099%=      5-min Rain = 0
KGO1 150303Z 18017KT 00/00 A3011 RMK A01 T000100-0  RH  099%=      5-min Rain = 0
KGO1 150304Z 18019KT 00/00 A3011 RMK A01 T00020000  RH  099%=      5-min Rain = 0
KGO1 150305Z 18018KT 00/00 A3011 RMK A01 T00020000  RH  099%=      5-min Rain = 0
KGO1 150306Z 18017G22KT 00/00 A3011 RMK A01 T00020000  RH  099%=      5-min Rain = 0
KGO1 150307Z 19016KT 00/00 A3011 RMK A01 T00020000  RH  099%=      5-min Rain = 0
KGO1 150308Z 19019KT 00/00 A3011 RMK A01 T00020000  RH  099%=      5-min Rain = 0
KGO1 150309Z 19019KT 00/00 A3011 RMK A01 T00020001  RH  099%=      5-min Rain = 0
KGO1 150310Z 19019KT 00/00 A3011 RMK A01 T00020001  RH  099%=      5-min Rain = 0
KGO1 150311Z 18019KT 00/00 A3011 RMK A01 T00020001  RH  099%=      5-min Rain = 0
KGO1 150312Z 18017KT 00/00 A3011 RMK A01 T00020001  RH  099%=      5-min Rain = 0
KGO1 150313Z 19016G21KT 00/00 A3011 RMK A01 T00020001  RH  099%=      5-min Rain = 0
KGO1 150314Z 19017KT 00/00 A3011 RMK A01 T00020000  RH  099%=      5-min Rain = 0
KGO1 150315Z 18017KT 00/00 A3011 RMK A01 T00020001  RH  099%=      5-min Rain = 0
KGO1 150316Z 19018KT 00/00 A3011 RMK A01 T00020001  RH  099%=      5-min Rain = 0
KGO1 150317Z 18018KT 00/00 A3011 RMK A01 T00020001  RH  099%=      5-min Rain = 0
KGO1 150318Z 19019KT 00/00 A3011 RMK A01 T00030002  RH  099%=      5-min Rain = 0
KGO1 150319Z 19020KT 00/00 A3011 RMK A01 T00030003  RH  100%=      5-min Rain = 0
KGO1 150320Z 19016KT 00/00 A3011 RMK A01 T00040003  RH  099%=      5-min Rain = 0
KGO1 150321Z 19019G24KT 00/00 A3011 RMK A01 T00040003  RH  099%=      5-min Rain = 0
KGO1 150322Z 19019KT 01/00 A3011 RMK A01 T00050004  RH  099%=      5-min Rain = 0
KGO1 150323Z 19022G27KT 01/00 A3011 RMK A01 T00050004  RH  099%=      5-min Rain = 0
KGO1 150324Z 19021KT 01/00 A3011 RMK A01 T00060004  RH  099%=      5-min Rain = 0
KGO1 150325Z 19020G25KT 01/01 A3011 RMK A01 T00060005  RH  099%=      5-min Rain = 0
KGO1 150326Z 19022KT 01/01 A3011 RMK A01 T00070005  RH  099%=      5-min Rain = 0
KGO1 150327Z 19019KT 01/01 A3011 RMK A01 T00070005  RH  099%=      5-min Rain = 0
KGO1 150328Z 19020KT 01/00 A3011 RMK A01 T00070004  RH  098%=      5-min Rain = 0
KGO1 150329Z 19019G26KT 01/01 A3011 RMK A01 T00070005  RH  098%=      5-min Rain = 0
KGO1 150330Z 20020KT 01/00 A3011 RMK A01 T00060004  RH  098%=      5-min Rain = 0
KGO1 150331Z 19022KT 01/00 A3011 RMK A01 T00060004  RH  099%=      5-min Rain = 0
KGO1 150332Z 20020KT 01/00 A3011 RMK A01 T00060004  RH  099%=      5-min Rain = 0
KGO1 150333Z 19021G27KT 01/00 A3011 RMK A01 T00060004  RH  099%=      5-min Rain = 0
KGO1 150334Z 19021KT 01/00 A3011 RMK A01 T00060004  RH  099%=      5-min Rain = 0
KGO1 150335Z 20020KT 01/00 A3011 RMK A01 T00060004  RH  099%=      5-min Rain = 0
KGO1 150336Z 19019KT 01/00 A3011 RMK A01 T00060004  RH  099%=      5-min Rain = 0
KGO1 150337Z 20019G24KT 01/00 A3011 RMK A01 T00060004  RH  099%=      5-min Rain = 0
KGO1 150338Z 20019KT 01/00 A3011 RMK A01 T00060004  RH  099%=      5-min Rain = 0
KGO1 150339Z 20020KT 01/01 A3011 RMK A01 T00060005  RH  099%=      5-min Rain = 0
KGO1 150340Z 19020KT 01/01 A3011 RMK A01 T00060005  RH  099%=      5-min Rain = 0
KGO1 150341Z 20021KT 01/01 A3011 RMK A01 T00060005  RH  099%=      5-min Rain = 0
KGO1 150342Z 20020KT 01/01 A3011 RMK A01 T00070006  RH  099%=      5-min Rain = 0
KGO1 150343Z 19019KT 01/01 A3011 RMK A01 T00070006  RH  099%=      5-min Rain = 0
KGO1 150344Z 19018KT 01/01 A3012 RMK A01 T00070005  RH  099%=      5-min Rain = 0
KGO1 150345Z 19019KT 01/01 A3012 RMK A01 T00070006  RH  099%=      5-min Rain = 0
KGO1 150346Z 20019KT 01/01 A3011 RMK A01 T00070006  RH  099%=      5-min Rain = 0
KGO1 150347Z 19018KT 01/01 A3011 RMK A01 T00070006  RH  099%=      5-min Rain = 0
KGO1 150348Z 20019KT 01/01 A3011 RMK A01 T00080007  RH  099%=      5-min Rain = 0
KGO1 150349Z 19019KT 01/01 A3011 RMK A01 T00080007  RH  099%=      5-min Rain = 0
KGO1 150350Z 20018KT 01/01 A3011 RMK A01 T00080007  RH  099%=      5-min Rain = 0
KGO1 150351Z 19019KT 01/01 A3011 RMK A01 T00080006  RH  099%=      5-min Rain = 0
KGO1 150352Z 19020KT 01/01 A3011 RMK A01 T00070006  RH  099%=      5-min Rain = 0
KGO1 150353Z 20017KT 01/01 A3011 RMK A01 T00080007  RH  099%=      5-min Rain = 0
KGO1 150354Z 20020KT 01/01 A3011 RMK A01 T00080007  RH  099%=      5-min Rain = 0
KGO1 150355Z 20017KT 01/01 A3011 RMK A01 T00080007  RH  099%=      5-min Rain = 0
KGO1 150356Z 20018KT 01/01 A3011 RMK A01 T00080007  RH  099%=      5-min Rain = 0
KGO1 150357Z 20017KT 01/01 A3011 RMK A01 T00080007  RH  099%=      5-min Rain = 0
KGO1 150358Z 20017KT 01/01 A3011 RMK A01 T00080007  RH  099%=      5-min Rain = 0
KGO1 150359Z 20017KT 01/01 A3011 RMK A01 T00080007  RH  099%=      5-min Rain = 0
KGO1 150400Z 20018KT 01/01 A3011 RMK A01 T00080007  RH  099%=      5-min Rain = 0
KGO1 150401Z 20018KT 01/01 A3011 RMK A01 T00070007  RH  100%=      5-min Rain = 0
KGO1 150402Z 20018KT 01/01 A3011 RMK A01 T00080007  RH  100%=      5-min Rain = 0
KGO1 150403Z 20018KT 01/01 A3011 RMK A01 T00080008  RH  100%=      5-min Rain = 0
KGO1 150404Z 21017KT 01/01 A3011 RMK A01 T00080008  RH  100%=      5-min Rain = 0
KGO1 150405Z 20018KT 01/01 A3011 RMK A01 T00080008  RH  100%=      5-min Rain = 0
KGO1 150406Z 20018KT 01/01 A3011 RMK A01 T00080008  RH  100%=      5-min Rain = 0
KGO1 150407Z 21016KT 01/01 A3011 RMK A01 T00080008  RH  100%=      5-min Rain = 0
KGO1 150408Z 20017KT 01/01 A3011 RMK A01 T00080008  RH  100%=      5-min Rain = 0
KGO1 150409Z 20016KT 01/01 A3011 RMK A01 T00080008  RH  100%=      5-min Rain = 0
KGO1 150410Z 20015KT 01/01 A3011 RMK A01 T00080008  RH  100%=      5-min Rain = 0
KGO1 150411Z 20017G23KT 01/01 A3011 RMK A01 T00080008  RH  100%=      5-min Rain = 0
KGO1 150412Z 20019KT 01/01 A3011 RMK A01 T00080008  RH  100%=      5-min Rain = 0
KGO1 150413Z 20019KT 01/01 A3011 RMK A01 T00080008  RH  100%=      5-min Rain = 0
KGO1 150414Z 20016KT 01/01 A3011 RMK A01 T00090009  RH  100%=      5-min Rain = 0
KGO1 150415Z 20018G23KT 01/01 A3011 RMK A01 T00090009  RH  100%=      5-min Rain = 0
KGO1 150416Z 20019KT 01/01 A3011 RMK A01 T00090009  RH  100%=      5-min Rain = 0
KGO1 150417Z 20018KT 01/01 A3011 RMK A01 T00100009  RH  100%=      5-min Rain = 0
KGO1 150418Z 20018KT 01/01 A3011 RMK A01 T00100010  RH  100%=      5-min Rain = 0
KGO1 150419Z 19019KT 01/01 A3011 RMK A01 T00100010  RH  100%=      5-min Rain = 0
KGO1 150420Z 19018KT 01/01 A3011 RMK A01 T00100010  RH  100%=      5-min Rain = 0
KGO1 150421Z 19018KT 01/01 A3011 RMK A01 T00100010  RH  100%=      5-min Rain = 0
KGO1 150422Z 19017KT 01/01 A3011 RMK A01 T00110011  RH  100%=      5-min Rain = 0
KGO1 150423Z 19018KT 01/01 A3011 RMK A01 T00110010  RH  100%=      5-min Rain = 0
KGO1 150424Z 19018KT 01/01 A3011 RMK A01 T00110011  RH  100%=      5-min Rain = 0
KGO1 150425Z 19017KT 01/01 A3011 RMK A01 T00110010  RH  100%=      5-min Rain = 0
KGO1 150426Z 19014KT 01/01 A3011 RMK A01 T00100010  RH  100%=      5-min Rain = 0
KGO1 150427Z 19014KT 01/01 A3011 RMK A01 T00100009  RH  100%=      5-min Rain = 0
KGO1 150428Z 20015KT 01/01 A301 RMK A01 T00090009  RH  100%=      5-min Rain = 0
KGO1 150429Z 20016KT 01/01 A301 RMK A01 T00090009  RH  100%=      5-min Rain = 0
KGO1 150430Z 20015KT 01/01 A3011 RMK A01 T00090009  RH  100%=      5-min Rain = 0
KGO1 150431Z 19016KT 01/01 A3011 RMK A01 T00090009  RH  100%=      5-min Rain = 0
KGO1 150432Z 20017KT 01/01 A3011 RMK A01 T00100010  RH  100%=      5-min Rain = 0
KGO1 150433Z 20016KT 01/01 A3011 RMK A01 T00100010  RH  100%=      5-min Rain = 0
KGO1 150434Z 20014KT 01/01 A3011 RMK A01 T00100010  RH  100%=      5-min Rain = 0
KGO1 150435Z 20014KT 01/01 A3011 RMK A01 T00100010  RH  100%=      5-min Rain = 0
KGO1 150436Z 20012KT 01/01 A3011 RMK A01 T00100010  RH  100%=      5-min Rain = 0
KGO1 150437Z 20013KT 01/01 A3011 RMK A01 T00090009  RH  100%=      5-min Rain = 0
KGO1 150438Z 20015KT 01/01 A3011 RMK A01 T00090009  RH  100%=      5-min Rain = 0
KGO1 150439Z 20012KT 01/01 A3011 RMK A01 T00100009  RH  100%=      5-min Rain = 0
KGO1 150440Z 20010KT 01/01 A3011 RMK A01 T00100010  RH  100%=      5-min Rain = 0
KGO1 150441Z 21011KT 01/01 A3011 RMK A01 T00100009  RH  100%=      5-min Rain = 0
KGO1 150442Z 20012KT 01/01 A3011 RMK A01 T00090009  RH  100%=      5-min Rain = 0
KGO1 150443Z 20010KT 01/01 A3011 RMK A01 T00100009  RH  100%=      5-min Rain = 0
KGO1 150444Z 21010KT 01/01 A3012 RMK A01 T00090009  RH  100%=      5-min Rain = 0
KGO1 150445Z 21009KT 01/01 A3012 RMK A01 T00100009  RH  100%=      5-min Rain = 0
KGO1 150446Z 21009KT 01/01 A3012 RMK A01 T00090009  RH  100%=      5-min Rain = 0
KGO1 150447Z 22009KT 01/01 A3012 RMK A01 T00090009  RH  100%=      5-min Rain = 0
KGO1 150448Z 21009KT 01/01 A3012 RMK A01 T00090008  RH  100%=      5-min Rain = 0
KGO1 150449Z 21008KT 01/01 A3011 RMK A01 T00090009  RH  100%=      5-min Rain = 0
KGO1 150450Z 21008KT 01/01 A3011 RMK A01 T00080008  RH  100%=      5-min Rain = 0
KGO1 150451Z 21009KT 01/01 A3011 RMK A01 T00080008  RH  100%=      5-min Rain = 0
KGO1 150452Z 21007KT 01/01 A3011 RMK A01 T00080008  RH  100%=      5-min Rain = 0
KGO1 150453Z 20008KT 01/01 A3011 RMK A01 T00080008  RH  100%=      5-min Rain = 0
KGO1 150454Z 20007KT 01/01 A3011 RMK A01 T00080008  RH  100%=      5-min Rain = 0
KGO1 150455Z 21008KT 01/01 A3012 RMK A01 T00080008  RH  100%=      5-min Rain = 0
KGO1 150456Z 20009KT 01/01 A3012 RMK A01 T00080008  RH  100%=      5-min Rain = 0
KGO1 150457Z 20009KT 01/01 A3012 RMK A01 T00080008  RH  100%=      5-min Rain = 0
KGO1 150458Z 20009KT 01/01 A3012 RMK A01 T00090009  RH  100%=      5-min Rain = 0
KGO1 150459Z 20009KT 01/01 A3012 RMK A01 T00100010  RH  100%=      5-min Rain = 0
KGO1 150500Z 19009KT 01/01 A3011 RMK A01 T00100010  RH  100%=      5-min Rain = 0
KGO1 150501Z 19009KT 01/01 A3011 RMK A01 T00110011  RH  100%=      5-min Rain = 0
KGO1 150502Z 19009KT 01/01 A3011 RMK A01 T00110011  RH  100%=      5-min Rain = 0
KGO1 150503Z 19009KT 01/01 A3011 RMK A01 T00110011  RH  100%=      5-min Rain = 0
KGO1 150504Z 19008KT 01/01 A3011 RMK A01 T00100010  RH  100%=      5-min Rain = 0
KGO1 150505Z 19009KT 01/01 A3011 RMK A01 T00100009  RH  100%=      5-min Rain = 0
KGO1 150506Z 19009KT 01/01 A3011 RMK A01 T00090009  RH  100%=      5-min Rain = 0
KGO1 150507Z 19010KT 01/01 A3011 RMK A01 T00090009  RH  100%=      5-min Rain = 0
KGO1 150508Z 19010KT 01/01 A3011 RMK A01 T00090009  RH  100%=      5-min Rain = 0
KGO1 150509Z 18010KT 01/01 A3011 RMK A01 T00100010  RH  100%=      5-min Rain = 0
KGO1 150510Z 18009KT 01/01 A3011 RMK A01 T00100010  RH  100%=      5-min Rain = 0
KGO1 150511Z 18010KT 01/01 A3011 RMK A01 T00100010  RH  100%=      5-min Rain = 0
KGO1 150512Z 18010KT 01/01 A3011 RMK A01 T00090009  RH  100%=      5-min Rain = 0
KGO1 150513Z 18010KT 01/01 A3011 RMK A01 T00090009  RH  100%=      5-min Rain = 0
KGO1 150514Z 18010KT 01/01 A3011 RMK A01 T00090009  RH  100%=      5-min Rain = 0
KGO1 150515Z 18009KT 01/01 A3011 RMK A01 T00090009  RH  100%=      5-min Rain = 0
KGO1 150516Z 18010KT 01/01 A3011 RMK A01 T00090009  RH  100%=      5-min Rain = 0
KGO1 150517Z 18010KT 01/01 A3011 RMK A01 T00090009  RH  100%=      5-min Rain = 0
KGO1 150518Z 18010KT 01/01 A3011 RMK A01 T00090009  RH  100%=      5-min Rain = 0
KGO1 150519Z 19012KT 01/01 A3011 RMK A01 T00100009  RH  100%=      5-min Rain = 0
KGO1 150520Z 19012KT 01/01 A3011 RMK A01 T00110011  RH  100%=      5-min Rain = 0
KGO1 150521Z 19011KT 01/01 A3011 RMK A01 T00120012  RH  100%=      5-min Rain = 0
KGO1 150522Z 19012KT 01/01 A3011 RMK A01 T00120012  RH  100%=      5-min Rain = 0
KGO1 150523Z 19012KT 01/01 A301 RMK A01 T00120012  RH  100%=      5-min Rain = 0
KGO1 150524Z 19012KT 01/01 A301 RMK A01 T00130013  RH  100%=      5-min Rain = 0
KGO1 150525Z 19013KT 01/01 A301 RMK A01 T00130013  RH  100%=      5-min Rain = 0
KGO1 150526Z 18013KT 01/01 A301 RMK A01 T00130013  RH  100%=      5-min Rain = 0
KGO1 150527Z 19012KT 01/01 A301 RMK A01 T00130013  RH  100%=      5-min Rain = 0
KGO1 150528Z 19013KT 01/01 A301 RMK A01 T00130013  RH  100%=      5-min Rain = 0
KGO1 150529Z 18012KT 01/01 A301 RMK A01 T00130013  RH  100%=      5-min Rain = 0
KGO1 150530Z 18012KT 01/01 A301 RMK A01 T00140013  RH  100%=      5-min Rain = 0
KGO1 150531Z 18013KT 01/01 A301 RMK A01 T00130013  RH  100%=      5-min Rain = 0
KGO1 150532Z 18012KT 01/01 A301 RMK A01 T00140014  RH  100%=      5-min Rain = 0
KGO1 150533Z 18012KT 01/01 A301 RMK A01 T00140014  RH  100%=      5-min Rain = 0
KGO1 150534Z 18012KT 01/01 A301 RMK A01 T00140013  RH  100%=      5-min Rain = 0
KGO1 150535Z 19012KT 01/01 A301 RMK A01 T00130013  RH  100%=      5-min Rain = 0
KGO1 150536Z 18012KT 01/01 A301 RMK A01 T00130013  RH  100%=      5-min Rain = 0
KGO1 150537Z 19012KT 01/01 A301 RMK A01 T00130013  RH  100%=      5-min Rain = 0
KGO1 150538Z 19012KT 01/01 A301 RMK A01 T00130013  RH  100%=      5-min Rain = 0
KGO1 150539Z 19013KT 01/01 A301 RMK A01 T00130013  RH  100%=      5-min Rain = 0
KGO1 150540Z 19013KT 01/01 A301 RMK A01 T00130013  RH  100%=      5-min Rain = 0
KGO1 150541Z 18012KT 01/01 A301 RMK A01 T00130013  RH  100%=      5-min Rain = 0
KGO1 150542Z 18012KT 01/01 A301 RMK A01 T00130013  RH  100%=      5-min Rain = 0
KGO1 150543Z 18012KT 01/01 A301 RMK A01 T00130012  RH  100%=      5-min Rain = 0
KGO1 150544Z 18012KT 01/01 A3009 RMK A01 T00120011  RH  100%=      5-min Rain = 0
KGO1 150545Z 18012KT 01/01 A3009 RMK A01 T00120011  RH  100%=      5-min Rain = 0
KGO1 150546Z 18012KT 01/01 A3009 RMK A01 T00110011  RH  100%=      5-min Rain = 0
KGO1 150547Z 18012KT 01/01 A3009 RMK A01 T00110011  RH  100%=      5-min Rain = 0
KGO1 150548Z 18012KT 01/01 A3009 RMK A01 T00100010  RH  100%=      5-min Rain = 0
KGO1 150549Z 18013KT 01/01 A3009 RMK A01 T00100010  RH  100%=      5-min Rain = 0
KGO1 150550Z 18013KT 01/01 A3009 RMK A01 T00110011  RH  100%=      5-min Rain = 0
KGO1 150551Z 18013KT 01/01 A3009 RMK A01 T00120011  RH  100%=      5-min Rain = 0
KGO1 150552Z 18013KT 01/01 A3009 RMK A01 T00120011  RH  100%=      5-min Rain = 0
KGO1 150553Z 18014KT 01/01 A3009 RMK A01 T00120011  RH  100%=      5-min Rain = 0
KGO1 150554Z 18014KT 01/01 A3009 RMK A01 T00110011  RH  100%=      5-min Rain = 0
KGO1 150555Z 18014KT 01/01 A3009 RMK A01 T00120011  RH  100%=      5-min Rain = 0
KGO1 150556Z 18014KT 01/01 A3009 RMK A01 T00120012  RH  100%=      5-min Rain = 0
KGO1 150557Z 18014KT 01/01 A3008 RMK A01 T00120012  RH  100%=      5-min Rain = 0
KGO1 150558Z 18013KT 01/01 A3008 RMK A01 T00120012  RH  100%=      5-min Rain = 0
KGO1 150559Z 18012KT 01/01 A3008 RMK A01 T00120012  RH  100%=      5-min Rain = 0

Page generated in 0.0726 seconds.